GFSFLT1_con_3kmhel_000.txt.gz
Helicity
74 96 117 120 139 142 169 164 175 177 171 168 154 146 139 112 86 63 24 28 27 65 66 51 53 69 77 98 114 119 108 107
97 123 138 130 158 155 177 181 176 164 154 152 155 164 148 112 68 33 6 35 36 32 45 50 39 58 76 88 99 123 142 119
62 97 135 166 156 167 187 180 183 172 174 197 203 186 155 117 77 37 7 7 14 11 23 36 61 74 79 98 100 96 97 109
24 41 67 113 138 157 167 200 197 196 223 207 184 161 127 77 35 11 27 8 -3 16 25 11 22 30 63 89 106 115 143 116
6 -12 19 30 62 124 176 197 202 206 202 198 158 129 101 83 88 88 66 65 44 28 28 18 17 31 45 44 62 99 119 164
43 3 34 45 87 105 118 146 178 201 184 132 112 85 66 66 88 108 99 81 81 80 77 81 71 67 63 67 62 56 67 101
73 91 102 89 87 88 117 160 177 181 181 144 121 112 98 112 126 124 117 99 124 122 139 152 143 141 131 123 104 84 73 65
78 103 121 125 140 173 196 204 189 187 197 198 184 179 190 183 185 175 184 183 185 180 183 161 172 179 169 158 147 135 127 110
73 71 113 126 134 158 200 221 200 223 255 256 270 237 207 211 200 213 193 205 187 171 153 136 132 133 133 130 145 157 149 168
68 62 99 126 118 144 218 227 257 298 286 301 265 247 225 196 175 155 172 156 158 145 135 123 121 123 121 124 164 165 152 165
86 103 97 125 143 151 228 255 303 316 319 281 266 228 182 154 135 167 160 146 123 119 113 109 106 103 103 114 139 135 124 144
92 108 109 130 147 207 241 278 354 326 278 261 225 175 157 162 171 147 123 119 100 102 93 92 90 90 93 102 95 93 101 110
96 97 111 138 205 255 286 314 306 243 213 201 163 181 169 154 155 128 100 87 83 77 82 86 82 82 81 84 84 90 95 96
99 102 139 145 193 251 303 330 290 241 200 177 221 170 160 148 117 90 75 74 82 86 88 88 85 89 90 93 94 93 96 102
91 94 144 162 186 263 316 356 299 227 223 192 168 154 145 123 92 71 79 89 92 89 89 87 88 90 99 94 91 97 115 140
88 102 132 199 242 341 324 360 356 278 178 162 146 158 128 97 65 76 92 89 94 85 81 82 88 106 113 105 119 121 -45 -77
124 101 149 186 278 329 394 315 259 170 152 138 181 150 118 90 71 95 93 87 79 78 79 86 96 116 104 118 -21 -119 -47 -65
135 99 145 229 302 313 264 245 174 155 124 171 170 136 113 89 83 103 90 76 70 73 82 99 95 41 -54 -94 -67 89 68 50
100 154 196 296 250 232 228 203 139 124 166 167 143 114 107 87 103 94 82 75 84 84 91 82 -100 -109 -74 -42 -28 57 57 87

GFSFLT1_con_3kmhel_006.txt.gz
Helicity
137 208 240 292 210 202 190 214 198 225 226 199 299 249 173 307 242 257 245 217 183 166 164 133 92 86 100 103 78 107 112 95
35 154 305 295 225 212 166 159 181 245 206 247 217 250 197 221 176 258 267 209 172 153 148 195 140 124 145 89 89 95 94 122
157 180 185 195 164 125 149 117 152 236 194 198 161 180 185 224 224 274 312 192 202 192 139 142 133 157 125 102 85 95 83 93
124 127 127 175 169 153 103 119 124 190 221 128 198 249 213 279 311 320 295 185 179 153 158 162 142 133 112 103 83 69 77 87
97 90 78 102 144 192 166 80 113 127 235 260 148 258 318 222 177 184 182 221 168 162 170 162 188 215 183 132 100 101 90 82
139 134 125 134 133 157 194 149 110 110 153 275 353 294 288 271 251 250 275 292 325 341 299 310 204 239 269 193 164 124 103 95
156 119 144 193 150 167 165 199 168 167 192 199 348 415 356 333 288 347 395 376 374 431 400 372 322 279 253 233 184 156 143 136
211 177 153 168 187 135 182 268 285 246 227 219 283 394 432 333 297 363 393 470 423 370 352 375 232 212 173 146 142 158 165 158
147 129 103 139 218 194 154 166 194 247 275 311 373 406 461 429 388 402 514 439 342 322 210 248 179 173 141 121 129 143 142 144
128 106 102 142 173 191 207 194 112 154 180 204 329 411 494 603 615 596 424 328 265 376 377 250 140 116 122 128 157 162 154 140
115 122 180 168 259 182 205 171 190 157 156 210 369 542 664 734 793 646 428 378 358 238 262 131 130 122 118 129 165 165 164 162
137 146 160 240 220 275 176 182 207 231 264 237 468 574 601 616 497 472 443 370 271 168 124 128 99 102 112 131 147 151 150 141
198 202 135 178 283 228 93 189 239 300 299 433 529 539 484 416 420 383 350 192 125 133 99 89 95 109 122 136 145 139 138 132
270 230 159 294 209 75 119 162 249 355 459 498 493 389 325 333 369 342 190 136 142 104 106 113 119 132 136 138 129 125 124 123
143 162 233 226 128 129 120 176 269 412 435 431 384 283 258 276 249 287 180 108 106 122 128 131 137 134 125 121 118 126 134 145
220 218 170 151 147 121 209 174 288 393 390 354 318 396 323 202 295 170 130 134 136 127 134 135 144 143 136 134 167 179 175 166
140 105 89 100 126 153 263 196 304 360 449 445 298 241 258 260 168 134 134 125 144 149 152 146 133 137 157 155 152 151 151 153
130 137 97 75 165 326 315 288 415 444 420 316 270 143 120 179 147 128 123 146 155 159 148 137 142 159 160 157 137 118 82 -81
68 98 78 108 263 267 246 239 286 296 288 151 70 123 154 159 136 140 146 162 162 144 139 152 172 167 106 75 65 -59 -92 -9

GFSFLT1_con_3kmhel_009.txt.gz
Helicity
67 184 265 354 353 333 313 280 236 210 212 210 239 257 239 212 270 271 205 184 171 204 227 184 158 155 161 125 92 67 56 58
173 249 270 313 294 265 243 245 185 220 234 238 217 228 194 192 212 240 291 248 190 168 189 214 191 189 156 110 93 71 75 84
151 180 196 181 164 161 164 162 176 196 228 222 216 196 183 222 211 243 298 319 274 253 203 215 249 248 194 181 142 115 80 78
126 139 126 123 116 138 191 162 164 214 232 252 243 229 230 274 276 292 319 341 297 280 248 225 227 236 257 226 164 114 109 104
161 144 127 111 76 137 143 166 164 159 225 319 310 289 304 314 308 284 278 263 297 294 242 249 266 296 359 335 298 228 151 126
228 188 212 205 192 164 100 131 155 143 182 225 288 313 314 324 306 294 287 297 285 268 321 410 431 362 357 295 229 265 163 111
191 149 143 194 198 172 151 164 165 177 213 214 273 298 321 388 391 426 391 428 486 528 547 488 415 357 352 374 235 302 240 134
58 68 142 176 238 236 207 195 185 179 225 251 270 323 353 424 500 538 538 523 526 549 468 440 375 322 404 356 406 333 149 109
106 137 143 225 311 288 251 229 188 166 167 174 203 244 341 418 524 550 608 659 643 663 749 554 480 505 524 324 152 139 122 132
144 138 180 196 234 218 243 176 192 172 167 183 145 140 252 433 581 689 757 745 773 773 794 560 570 315 117 110 128 126 121 123
126 150 159 221 285 280 186 192 134 133 206 222 269 311 411 511 609 710 767 782 777 804 498 261 121 116 97 100 121 115 128 150
288 257 232 249 190 136 124 122 72 148 193 282 351 402 425 458 523 512 489 417 258 150 89 67 90 111 90 113 127 126 136 134
244 254 232 156 67 95 115 78 129 155 251 372 470 458 425 399 361 340 342 252 184 125 104 109 100 108 121 126 123 125 123 121
216 133 103 92 116 128 93 103 157 152 321 433 457 404 342 309 299 244 219 185 157 82 65 87 105 115 121 124 122 124 125 124
182 55 16 113 109 102 119 139 132 163 336 371 347 304 298 310 315 308 230 138 114 107 100 109 119 119 118 120 114 119 134 145
74 47 49 102 92 110 146 173 173 185 312 448 544 539 420 355 304 261 176 129 114 116 120 123 128 128 118 112 135 135 138 127
121 95 103 101 100 150 222 261 238 257 369 398 443 437 410 369 235 119 107 107 120 122 121 134 127 121 127 196 184 129 111 115
103 99 128 106 169 235 245 207 210 266 302 301 275 228 205 43 -10 46 108 120 129 130 121 112 118 153 150 102 64 98 133 158
106 105 118 194 202 186 169 181 238 256 157 116 107 86 -13 61 124 127 130 143 132 109 113 125 134 107 71 66 85 141 42 -34

GFSFLT1_con_3kmhel_012.txt.gz
Helicity
92 163 242 285 276 238 216 209 195 174 185 205 191 176 184 212 196 177 166 158 141 176 172 163 178 186 165 165 151 135 106 87
165 257 316 342 283 225 164 195 151 211 203 207 205 205 197 207 222 238 230 197 188 199 201 186 197 210 174 169 162 123 102 87
89 126 168 177 176 137 123 126 128 151 203 205 240 239 222 219 203 231 251 267 275 275 261 250 259 273 266 257 234 217 189 127
93 81 91 134 128 107 101 114 128 114 159 205 230 271 280 269 236 256 289 305 341 357 337 343 320 308 321 310 317 321 296 244
123 115 103 112 105 104 100 102 129 116 145 201 255 294 298 318 342 351 303 336 353 373 369 363 352 360 381 462 485 447 404 356
85 95 134 113 117 126 104 90 134 104 142 178 238 300 297 295 320 318 308 341 363 388 430 458 491 512 525 543 544 566 460 433
71 114 129 151 140 129 136 173 138 121 116 155 227 263 270 312 284 325 344 406 508 531 620 701 703 715 748 666 611 499 308 287
61 89 114 177 234 243 263 268 175 137 125 195 160 205 242 246 246 292 376 594 693 662 719 801 810 862 805 736 628 600 320 384
52 152 189 266 314 287 216 206 166 152 188 165 162 190 194 201 208 245 399 533 665 822 885 795 753 568 508 628 653 389 224 229
207 226 262 297 291 245 169 148 130 100 153 170 157 185 159 145 206 307 480 727 848 888 792 712 553 419 260 80 88 111 167 187
223 203 229 212 205 125 96 89 115 139 154 157 191 226 240 267 337 414 556 658 668 669 671 536 323 -49 -22 52 118 158 170 154
165 205 201 164 123 131 114 116 128 120 132 136 222 282 328 396 400 415 400 392 393 312 107 -44 -3 30 62 111 126 118 121 124
175 133 104 88 59 81 105 100 104 106 121 145 224 292 346 356 334 307 286 255 243 67 -6 17 77 101 92 99 112 116 123 122
117 37 54 72 105 108 108 123 128 106 115 160 226 257 272 303 317 294 245 186 134 90 85 96 102 100 103 105 116 122 130 121
163 8 76 110 86 97 130 144 146 115 103 159 238 298 319 331 314 256 219 206 175 120 101 107 109 110 114 110 110 120 130 127
64 54 84 101 85 126 124 183 171 153 199 285 365 429 448 459 422 394 309 175 103 102 106 122 123 118 106 126 140 128 122 109
108 104 94 129 120 121 156 169 167 166 212 277 348 386 370 358 242 153 24 30 80 115 133 118 109 106 119 132 134 128 110 105
140 104 127 134 133 161 156 183 130 190 220 162 134 100 64 -64 -68 -43 -4 61 109 113 104 96 89 96 85 77 84 102 115 131
140 122 118 137 180 189 176 160 194 170 109 50 54 54 46 21 10 63 107 115 110 102 82 83 99 88 68 68 67 101 133 136

GFSFLT1_con_3kmhel_015.txt.gz
Helicity
26 101 177 227 210 183 139 109 106 121 110 108 117 124 128 145 155 176 165 175 178 173 161 161 176 172 164 173 147 136 133 114
56 124 193 214 213 180 126 98 77 170 141 142 115 155 184 203 185 174 182 193 208 234 226 212 226 221 201 198 196 169 156 151
85 65 66 99 135 123 105 66 67 141 159 157 137 149 170 237 259 233 227 236 248 288 302 289 300 307 268 276 309 295 234 226
14 6 28 73 94 89 74 95 119 127 135 156 168 188 188 229 247 291 295 324 304 338 355 373 387 418 396 387 392 384 340 326
41 49 46 55 30 66 83 90 100 107 138 169 192 229 217 254 246 274 278 334 328 347 367 416 439 489 475 468 488 498 521 501
15 32 30 25 65 82 120 137 141 145 151 149 166 192 222 249 230 224 228 249 292 306 337 392 477 513 490 519 606 730 713 732
51 73 103 136 192 230 246 239 240 257 199 146 132 151 199 205 194 173 176 221 230 262 380 515 575 682 794 783 855 816 715 758
91 128 159 223 271 295 276 265 241 207 162 133 124 148 146 155 175 206 194 201 233 314 478 710 886 871 905 922 961 626 763 777
130 232 270 258 262 256 217 200 178 145 138 149 181 170 176 182 187 193 180 239 364 528 736 846 821 782 885 784 540 556 320 201
227 202 201 207 190 155 146 143 124 126 153 163 158 177 172 170 193 214 247 342 443 554 597 627 620 645 561 368 206 165 36 63
161 146 119 110 108 102 85 106 135 126 129 150 143 124 147 181 247 269 299 352 396 403 421 403 384 322 95 -19 -22 -12 11 94
92 105 105 91 98 90 79 125 114 103 123 127 99 122 160 236 267 308 342 313 273 260 232 196 69 -141 -28 40 77 88 109 118
72 35 61 76 58 70 81 95 89 74 89 77 55 89 173 256 259 237 236 229 216 157 147 106 80 67 93 106 105 110 122 125
170 134 112 145 131 124 90 77 57 52 53 58 90 112 182 222 275 286 283 289 233 160 128 130 121 126 121 119 129 129 116 117
110 99 136 185 158 106 80 63 68 72 91 104 139 170 225 262 338 378 415 358 237 184 125 112 117 114 116 114 109 115 125 124
98 140 160 188 156 99 92 82 92 108 118 126 175 251 339 456 543 472 336 189 113 106 101 107 110 101 96 123 129 129 126 122
118 164 173 192 155 106 106 128 140 165 142 140 160 209 193 138 140 41 -34 -127 -42 70 119 114 104 102 93 89 97 119 115 109
142 174 227 146 124 135 151 156 162 206 155 132 115 112 100 72 53 27 16 53 107 127 117 108 100 96 82 87 88 114 124 115
160 154 110 91 133 164 189 212 177 192 167 159 125 106 106 102 98 118 125 124 120 109 102 100 100 90 82 76 69 105 118 111

GFSFLT1_con_3kmhel_018.txt.gz
Helicity
-9 6 82 135 143 126 115 85 61 61 82 101 102 91 86 98 118 153 163 184 185 207 204 196 216 225 203 209 192 178 170 146
42 91 131 141 128 128 115 127 99 108 101 128 135 124 133 125 114 126 183 216 225 253 257 254 274 275 244 252 251 205 180 194
36 35 31 34 62 62 93 59 81 109 167 175 159 141 111 111 135 128 187 209 248 296 322 323 343 343 316 309 350 342 270 284
17 6 -19 -8 16 39 53 52 76 112 137 154 150 137 153 162 151 134 166 189 202 272 301 339 380 432 407 387 407 434 359 372
6 14 29 18 48 60 60 82 91 122 155 162 156 153 167 176 186 207 175 166 179 193 237 290 333 382 406 447 496 500 536 496
22 37 57 96 106 123 150 197 226 227 213 176 130 116 148 183 196 162 143 149 160 170 198 234 291 348 387 416 500 498 558 576
82 99 130 168 186 190 199 219 205 206 168 117 64 81 118 135 104 135 153 163 139 134 133 185 282 376 417 487 631 734 819 827
169 150 199 207 220 208 192 190 157 80 38 62 115 142 109 97 129 153 145 159 188 214 279 358 417 493 573 642 692 733 794 851
170 198 192 170 166 149 119 94 60 69 94 116 132 137 128 126 124 118 149 196 237 267 357 406 438 477 477 492 513 558 630 398
162 171 163 131 116 96 91 85 107 107 104 127 127 103 72 64 90 133 201 252 272 311 326 325 305 291 265 286 318 293 256 203
105 104 115 126 119 112 104 123 122 100 65 62 65 60 67 82 100 108 169 232 308 311 256 207 176 146 92 88 57 22 -21 -60
87 91 74 60 55 75 73 90 88 92 63 56 59 65 68 98 109 141 223 248 211 176 154 158 119 81 63 49 54 56 53 80
84 97 92 85 106 115 151 106 87 83 62 65 67 65 58 99 126 172 200 233 267 232 277 209 138 122 122 103 88 92 87 75
64 65 80 120 152 154 133 120 87 60 75 71 47 48 61 122 210 275 327 366 353 333 231 138 109 109 106 114 101 87 81 82
113 126 120 137 149 159 153 107 90 103 115 106 89 91 149 259 337 378 423 405 276 148 90 105 106 97 97 84 80 74 76 80
82 81 89 100 144 93 91 103 134 143 141 147 146 142 156 176 190 179 154 71 45 27 -2 23 93 85 74 76 75 86 99 101
74 57 84 108 104 66 82 113 132 153 128 162 143 137 123 83 83 72 74 61 58 78 102 105 97 91 100 95 89 90 98 108
54 82 99 79 51 82 110 136 136 155 171 172 149 155 123 123 121 119 128 118 114 113 106 105 91 80 73 63 67 101 112 104
140 113 60 66 69 84 132 176 202 182 222 192 122 107 96 120 143 140 121 122 115 99 92 91 91 77 59 59 62 97 99 82

GFSFLT1_con_3kmhel_024.txt.gz
Helicity
41 17 10 7 21 31 32 50 65 90 91 86 68 78 81 89 92 92 78 76 72 71 77 68 72 90 98 111 111 119 129 116
82 74 62 61 71 57 58 84 138 121 116 102 100 104 103 101 95 105 83 85 78 78 98 99 105 126 105 90 100 105 125 141
211 183 148 133 123 113 136 144 158 148 117 120 119 114 121 120 100 111 90 98 68 83 97 85 85 108 123 125 119 138 142 146
201 157 126 117 137 154 165 177 171 165 141 132 129 117 122 170 165 126 106 70 57 85 89 90 104 127 130 116 119 117 144 145
114 111 121 129 160 160 159 151 136 136 142 136 139 122 113 133 141 102 72 35 72 67 51 69 82 98 108 117 130 135 149 162
119 126 134 158 160 148 155 148 138 128 122 113 110 114 72 98 127 172 135 103 78 66 70 65 76 112 128 135 132 148 167 179
101 116 164 168 155 160 154 157 138 117 97 74 81 143 116 132 165 131 123 93 71 65 96 83 107 138 145 148 187 230 240 296
82 131 175 181 156 133 105 92 84 70 41 55 106 145 167 164 142 137 102 68 59 64 99 90 147 197 226 288 270 281 291 273
95 132 143 123 89 61 45 29 30 65 101 161 166 168 148 129 124 82 61 58 54 72 91 129 161 174 165 173 176 168 158 174
90 116 87 62 68 72 66 88 104 117 138 133 131 124 99 76 63 44 30 12 44 80 115 145 215 268 196 156 120 106 77 52
102 92 80 79 93 102 124 125 88 82 97 121 103 82 95 91 65 37 21 50 102 161 248 231 293 269 202 141 131 122 69 45
114 86 53 52 72 80 116 131 119 135 122 105 85 107 107 102 86 85 116 172 243 273 268 237 157 97 108 95 95 91 89 74
119 82 54 54 87 137 144 140 135 112 90 100 116 134 127 125 137 150 154 159 157 160 142 100 43 24 10 10 32 45 41 53
128 110 89 86 114 141 103 107 95 68 75 102 133 137 113 119 133 131 130 95 66 60 52 72 86 73 69 70 73 81 80 72
102 124 126 150 136 93 91 116 90 64 71 71 87 107 128 128 120 76 70 65 79 95 81 85 92 95 95 102 89 75 64 59
86 140 146 127 131 94 101 67 50 59 71 81 123 160 120 172 172 107 85 78 101 92 87 100 91 83 104 112 73 64 60 57
127 136 131 129 104 104 82 48 60 70 106 136 161 172 122 116 112 113 114 87 83 93 93 93 76 83 173 101 76 70 63 63
189 144 129 106 102 66 63 58 75 110 123 139 154 155 151 154 137 129 115 104 99 88 80 83 79 78 166 99 83 72 70 62
248 113 108 93 57 63 64 79 120 109 104 122 140 160 152 136 118 115 101 91 82 81 83 88 90 96 133 93 78 62 69 50

GFSFLT1_con_3kmhel_027.txt.gz
Helicity
60 80 34 49 93 92 73 70 106 120 151 116 94 81 65 80 83 112 175 120 146 108 81 64 71 75 79 86 103 99 113 114
290 243 182 100 84 77 141 140 230 140 140 169 152 138 160 132 143 236 151 151 143 112 100 94 88 93 118 124 114 106 125 121
189 181 174 164 143 138 119 147 164 166 199 210 153 134 144 149 112 238 160 178 100 82 114 88 89 128 139 113 115 129 128 126
200 182 155 131 143 146 163 181 180 188 179 169 151 110 130 157 192 111 92 147 118 167 173 125 134 129 114 111 114 117 138 137
160 134 121 117 120 143 170 187 181 154 141 149 118 111 133 154 106 168 212 130 146 148 118 123 115 102 73 70 84 161 184 175
135 108 93 108 132 162 167 161 139 125 110 105 106 109 110 81 119 178 108 139 151 119 111 113 108 68 73 113 126 124 179 206
104 87 74 114 135 138 106 85 84 90 86 84 78 67 77 80 99 127 158 146 125 117 121 109 99 61 92 148 265 294 245 216
85 77 74 93 106 122 92 93 89 93 77 63 84 80 106 128 162 177 144 119 105 88 88 63 78 176 215 243 216 223 208 195
49 48 61 108 128 96 58 57 67 102 132 151 154 168 189 177 169 153 126 99 91 76 91 199 270 366 334 254 197 162 112 125
74 93 115 126 126 102 98 86 107 141 133 128 137 123 108 92 118 117 106 94 80 203 321 334 299 252 233 216 188 138 99 59
104 100 126 127 110 98 86 84 107 115 121 143 122 117 100 123 147 136 155 174 266 227 246 217 175 138 107 86 81 101 126 150
89 90 89 77 113 138 176 172 162 121 120 110 111 123 119 146 141 177 171 236 207 176 129 120 103 80 67 54 42 39 46 63
79 93 117 174 172 193 174 159 135 148 122 115 112 102 123 153 238 218 175 153 107 110 79 57 76 90 76 79 83 94 96 80
97 156 177 178 190 204 197 168 155 116 87 83 89 105 172 158 149 124 133 91 72 55 87 106 110 127 111 137 122 119 124 104
123 163 181 215 207 264 165 138 111 88 81 78 99 196 135 186 186 179 138 117 108 59 48 86 102 123 112 99 126 119 83 69
216 276 285 145 294 156 119 101 85 88 79 92 158 156 106 98 101 97 92 95 116 97 97 100 106 102 112 188 143 99 68 64
236 275 258 287 162 99 94 103 89 79 107 162 224 157 144 139 125 106 131 126 121 104 89 92 94 88 221 185 135 106 81 73
214 231 218 117 77 121 111 92 81 130 133 148 146 123 152 156 151 135 110 100 90 84 83 91 102 93 215 159 120 93 86 74
151 90 39 87 92 65 94 105 104 123 153 194 192 161 115 96 119 108 116 88 86 87 90 114 107 98 171 140 112 77 84 72

GFSFLT1_con_3kmhel_030.txt.gz
Helicity
150 266 224 167 152 127 140 158 186 210 269 220 130 112 71 90 136 211 274 223 235 194 123 113 80 124 139 137 129 132 141 144
281 334 405 413 319 268 251 283 242 263 208 207 239 306 306 258 240 227 231 219 192 164 146 203 228 192 209 200 172 149 153 158
252 257 337 273 214 201 208 190 188 201 224 191 158 177 169 139 119 143 139 192 251 195 168 187 203 184 162 148 147 159 161 140
192 207 187 159 151 119 105 109 143 175 213 219 193 152 153 168 198 204 207 242 228 198 247 220 189 173 158 141 114 114 139 134
141 122 110 109 116 133 125 146 164 144 141 172 168 132 151 153 150 198 226 210 236 282 223 205 194 163 153 109 93 110 138 152
129 118 108 112 80 76 101 118 115 113 83 77 76 110 129 125 136 171 194 243 239 211 186 145 126 102 91 139 223 205 200 212
128 97 65 45 32 64 87 114 146 135 113 77 65 97 90 111 107 161 173 173 158 137 126 112 141 221 220 196 226 229 216 224
145 132 130 115 86 55 72 94 92 111 149 172 205 219 207 169 163 153 175 136 92 94 116 193 185 187 204 229 232 240 210 174
79 117 117 156 164 154 136 139 123 130 164 183 256 242 155 152 139 160 142 144 145 267 192 167 191 207 207 196 167 158 141 119
84 149 161 174 150 113 120 115 93 151 194 207 173 147 167 150 165 168 149 164 200 221 153 147 163 163 142 112 110 120 115 127
130 137 151 130 136 147 183 244 244 264 250 221 173 150 149 144 140 176 257 228 176 147 141 135 134 131 94 74 80 72 80 90
115 201 167 201 207 211 219 334 342 277 237 172 149 137 136 157 218 247 234 175 163 138 140 128 77 68 62 74 94 107 81 104
139 207 237 226 179 209 272 390 428 278 155 133 133 137 150 203 187 200 150 150 137 155 142 111 96 89 85 103 140 140 127 164
157 169 197 224 236 297 404 488 277 139 117 151 117 124 230 213 189 212 160 157 145 138 106 100 82 49 73 141 124 144 230 174
212 216 330 362 192 314 396 306 151 135 111 103 92 194 232 159 175 144 126 110 118 134 134 125 119 115 113 143 180 159 140 104
301 309 230 187 167 297 211 137 134 128 100 107 137 265 262 160 154 122 136 156 173 146 118 119 112 104 165 158 156 126 91 73
127 139 140 118 119 112 148 143 143 104 100 152 128 246 281 177 172 145 133 140 146 144 136 118 121 141 186 170 137 85 72 68
126 137 150 118 122 167 179 97 128 173 139 126 178 286 353 178 124 107 137 160 163 149 125 121 156 163 165 142 113 61 64 66
148 118 83 66 107 102 94 95 187 214 209 211 208 336 288 158 136 157 184 189 156 137 115 169 145 111 129 128 76 75 78 94

GFSFLT1_con_3kmhel_033.txt.gz
Helicity
503 470 425 373 332 315 308 302 305 212 220 214 208 199 217 190 211 256 253 225 198 224 212 215 162 155 164 172 189 168 150 112
458 540 516 451 404 274 266 365 307 293 275 237 222 245 230 219 182 117 157 203 284 228 218 191 195 190 182 169 134 122 132 122
309 369 353 290 264 206 187 184 179 189 236 216 223 217 195 217 257 281 279 279 292 303 315 307 289 234 186 152 125 118 108 103
216 239 227 262 261 210 145 101 108 148 199 206 185 157 170 200 199 198 224 260 289 314 335 297 244 188 158 133 100 121 95 72
73 111 144 147 149 153 117 74 69 88 109 133 141 133 136 119 126 144 185 223 237 228 209 184 157 128 128 132 158 116 107 100
95 75 68 65 67 62 75 112 94 68 67 71 77 83 70 67 96 160 185 185 177 149 123 82 95 99 104 108 122 135 132 128
66 46 25 -13 -40 5 66 101 136 166 182 185 193 204 192 180 156 164 150 122 111 118 79 48 47 71 96 104 124 144 131 144
133 137 146 159 196 145 129 147 121 116 143 157 199 235 233 201 161 141 130 89 77 54 30 62 60 84 129 160 153 141 150 140
109 175 241 237 213 190 139 130 128 187 206 244 207 225 170 152 144 126 138 144 114 118 106 102 99 121 144 145 143 144 118 102
139 177 193 183 205 197 209 236 233 269 364 364 264 223 163 120 152 215 194 173 132 119 80 65 56 101 134 128 136 132 95 87
161 194 219 248 282 238 258 284 329 365 425 341 236 148 118 158 172 173 145 118 106 114 111 136 139 128 114 103 113 86 97 87
208 242 203 196 253 266 373 362 361 338 394 231 159 123 147 175 160 148 138 125 162 164 158 130 111 106 99 124 121 123 116 114
162 168 167 272 279 280 241 298 345 295 273 150 119 141 202 185 184 163 115 108 139 138 121 121 128 131 124 120 111 138 181 180
368 412 320 257 226 209 193 210 244 233 164 151 141 159 224 209 206 168 49 82 108 91 101 94 98 86 79 103 141 154 151 119
166 121 110 184 183 161 170 214 198 148 146 133 100 171 222 243 221 146 76 72 87 85 92 100 104 102 146 141 134 119 102 84
104 64 66 123 111 121 166 157 124 123 180 146 115 227 320 320 270 200 104 134 157 141 143 123 128 181 153 121 99 67 30 21
51 94 112 122 108 120 122 142 122 144 190 157 180 259 345 264 264 199 119 123 191 189 160 171 202 137 113 97 63 34 30 30
118 115 129 146 106 86 113 153 128 190 203 152 141 172 329 319 274 211 131 164 229 206 189 223 144 97 88 59 52 77 85 90
151 154 148 90 109 157 218 194 201 228 189 195 210 168 246 247 158 163 158 226 204 173 223 159 120 83 60 48 86 128 114 95

GFSFLT1_con_3kmhel_036.txt.gz
Helicity
497 515 541 557 480 435 469 340 245 153 144 194 226 225 238 210 244 252 256 281 305 328 316 307 251 222 200 165 130 141 129 116
529 497 509 443 444 322 221 233 226 181 176 194 259 267 300 323 366 415 413 389 372 342 305 306 282 244 198 159 112 104 83 82
443 415 395 295 262 197 149 150 181 158 120 119 130 153 174 196 230 259 249 237 254 269 275 260 245 209 178 137 107 75 57 92
211 233 205 196 175 156 154 110 69 78 95 108 126 114 120 123 128 126 162 191 197 197 192 167 143 107 108 100 105 116 114 105
135 142 193 198 168 152 118 77 80 99 104 85 68 62 69 53 71 72 112 140 138 123 103 63 36 47 105 123 129 110 95 104
-2 81 65 25 35 66 82 90 94 88 72 57 65 71 39 111 162 157 135 129 135 112 89 80 84 86 75 74 75 96 94 92
49 15 12 18 44 59 83 75 68 102 110 123 141 163 158 168 182 188 156 138 121 102 72 42 44 43 40 50 74 94 96 102
50 57 59 37 79 100 101 107 144 163 202 225 227 200 236 222 217 182 157 136 117 83 57 47 18 -4 26 78 105 113 111 126
68 72 111 147 160 144 154 216 250 270 276 270 255 252 229 213 184 158 170 127 85 64 65 74 53 48 70 88 93 91 82 90
114 125 157 199 220 229 243 361 355 293 272 195 241 268 258 173 121 104 113 110 70 37 23 15 36 58 56 80 88 105 109 111
107 160 214 245 270 285 305 284 241 221 232 245 247 221 166 123 129 139 122 92 51 54 46 35 54 77 90 101 108 90 121 132
216 297 367 303 246 196 184 206 254 271 229 197 165 146 112 124 123 121 116 86 74 67 48 104 119 121 108 104 84 66 85 123
335 263 182 208 164 137 140 215 229 179 121 142 100 102 137 197 114 130 165 146 102 63 89 106 134 146 164 127 124 136 133 139
190 172 156 132 155 147 171 175 133 115 131 104 113 125 160 175 149 200 192 169 121 84 76 98 116 160 178 154 137 126 114 102
150 109 67 88 126 151 140 134 107 105 104 118 141 136 165 217 198 225 205 177 181 148 110 128 178 178 182 168 143 112 70 45
132 79 27 -7 110 122 127 133 132 136 132 145 145 160 169 186 164 170 167 188 308 206 129 203 184 193 192 153 104 65 40 36
22 17 40 133 160 178 132 124 155 187 189 188 179 176 182 186 152 167 115 295 205 133 202 167 184 187 155 101 69 58 57 68
23 108 151 193 155 137 173 161 136 140 128 141 143 144 90 67 90 129 190 99 23 181 156 191 174 129 90 70 65 85 95 99
179 190 188 163 153 167 143 111 85 97 135 101 86 60 42 54 83 138 118 109 62 120 176 181 161 119 91 75 78 98 109 121

GFSFLT1_con_3kmhel_039.txt.gz
Helicity
265 280 351 413 477 432 409 336 227 142 201 212 279 304 295 303 312 320 328 330 346 326 346 260 173 163 198 182 131 106 84 93
465 461 459 447 425 382 218 189 154 163 158 188 214 198 188 203 208 210 239 256 240 214 192 234 209 164 124 108 85 96 78 77
532 471 423 368 200 170 173 108 91 106 109 98 99 101 118 85 86 125 140 160 159 148 134 121 126 124 125 117 107 76 66 78
314 222 184 115 75 52 90 116 115 94 76 75 84 84 66 66 63 101 126 131 130 125 121 115 102 65 61 65 94 126 128 108
93 59 52 81 55 11 17 6 31 38 47 53 46 49 50 -6 -7 31 82 143 149 108 91 74 52 53 110 112 122 123 141 160
-19 12 26 26 -5 -4 -0 23 16 9 20 27 25 31 35 47 73 84 113 159 176 152 131 113 98 78 77 86 81 94 93 85
-0 14 25 29 5 12 46 57 61 68 96 118 95 93 116 112 116 132 143 169 181 157 128 100 77 57 42 31 38 55 72 89
28 -16 -26 -5 21 7 95 140 168 152 160 170 166 177 196 177 125 129 153 158 125 92 96 94 67 47 46 42 62 78 90 113
108 67 79 99 50 163 175 193 199 184 182 186 199 193 155 133 129 132 118 111 94 83 71 50 33 26 46 46 80 93 104 136
147 129 126 166 192 201 186 171 185 205 219 213 191 145 144 141 129 137 147 133 80 43 74 51 18 21 62 77 86 78 104 129
247 280 308 214 172 146 168 184 236 234 201 158 161 156 120 130 129 126 148 118 66 65 80 69 71 70 63 83 97 110 130 155
270 347 313 188 197 167 174 189 219 200 153 163 154 127 123 122 136 97 135 131 117 99 93 134 136 116 129 117 124 164 212 210
316 269 268 223 192 152 123 154 180 153 147 146 118 107 88 97 141 142 187 179 173 156 128 161 151 181 151 120 167 169 172 166
289 251 216 162 100 79 137 172 146 113 131 125 138 138 136 138 169 161 175 175 156 138 191 174 153 154 139 144 139 155 157 121
261 215 139 56 118 245 158 119 137 126 131 142 155 153 161 160 141 147 148 141 148 120 169 180 129 119 138 149 170 146 110 101
190 123 103 162 130 120 141 151 155 130 133 145 135 130 120 133 135 124 119 145 145 299 189 62 76 155 169 161 157 115 106 102
188 215 139 74 104 139 129 127 124 125 138 155 112 115 128 132 120 106 170 241 234 174 168 165 112 130 149 148 109 107 104 103
115 82 41 58 128 122 131 121 123 112 136 141 143 135 122 96 90 152 174 141 137 81 64 134 96 116 125 100 105 126 122 119
104 94 145 149 141 142 125 120 107 103 118 120 119 113 102 81 95 128 134 118 106 75 127 137 132 127 119 128 163 142 120 109

GFSFLT1_con_3kmhel_042.txt.gz
Helicity
130 133 186 302 413 467 470 407 379 263 193 230 207 174 161 124 125 114 118 117 126 168 165 141 172 185 172 165 152 152 134 123
274 261 256 313 361 435 343 309 251 197 119 75 85 65 46 76 84 90 96 104 125 134 140 149 151 156 151 145 102 96 86 101
275 266 259 261 221 135 115 83 65 30 22 15 32 30 51 55 40 65 92 115 116 116 136 158 162 133 120 99 94 77 65 82
114 121 96 16 -21 18 9 -12 -10 9 42 50 50 61 67 72 68 64 64 95 103 107 127 142 141 109 102 76 83 96 91 75
66 41 -12 11 -9 -39 -32 -26 -0 2 6 31 50 70 73 69 91 105 103 138 153 150 164 159 125 87 99 86 100 98 122 143
34 -14 -40 42 -0 -38 -16 23 41 43 57 67 67 65 82 91 123 140 139 167 187 184 170 138 115 106 98 83 59 50 61 66
18 -10 5 33 -14 -2 -1 34 71 71 89 99 108 119 129 161 155 139 158 173 165 143 134 132 116 87 42 16 19 43 75 103
13 39 53 41 227 102 76 86 81 122 142 166 188 198 179 171 147 147 161 158 131 94 104 92 76 49 54 64 73 84 111 133
36 109 144 137 122 95 97 93 144 172 141 163 168 169 160 151 133 131 130 133 114 89 89 109 111 105 94 93 102 89 84 80
122 149 158 169 157 153 99 195 140 139 144 159 166 142 126 111 98 109 127 128 151 97 110 127 124 123 104 113 93 87 101 97
227 265 223 263 245 224 207 167 138 104 120 151 138 131 121 106 118 101 98 109 134 154 181 168 126 115 128 134 116 137 136 110
315 316 332 307 245 192 168 127 130 160 171 165 151 152 147 115 91 98 124 160 185 185 163 143 137 139 164 172 154 133 141 142
375 343 304 252 235 203 213 171 197 182 159 157 143 136 146 133 145 170 193 191 196 168 154 165 154 161 182 142 137 148 138 123
317 300 264 247 246 204 134 173 166 154 164 166 152 144 150 147 166 190 187 185 182 159 181 201 186 226 140 152 136 130 125 122
278 264 264 213 137 164 177 188 189 164 146 125 112 118 120 126 136 140 142 144 170 180 214 211 201 126 124 136 126 134 126 113
230 242 237 156 176 211 219 172 114 107 107 104 103 100 113 132 131 116 114 140 161 185 164 154 196 169 187 135 96 113 113 96
206 187 150 191 205 182 145 109 94 98 91 92 95 127 137 128 120 115 130 131 124 135 125 87 77 112 125 102 100 112 102 103
154 151 151 189 181 129 109 86 88 93 101 103 127 135 126 119 115 118 127 122 119 105 86 98 144 152 117 106 135 124 116 109
149 115 124 165 140 124 107 118 116 126 120 121 118 130 134 127 131 115 101 94 95 73 94 137 148 126 119 125 125 118 108 97

GFSFLT1_con_3kmhel_045.txt.gz
Helicity
38 42 55 123 202 268 305 353 392 317 298 112 42 58 48 46 39 55 83 97 109 119 136 161 168 160 155 156 163 158 154 169
109 108 109 131 179 196 194 170 128 150 87 50 -5 -7 33 59 71 83 97 108 117 127 134 140 129 135 118 112 109 126 121 106
133 103 58 33 44 80 114 113 54 21 10 -55 -33 9 39 63 70 70 66 79 93 125 126 125 115 109 118 112 102 88 68 67
98 70 56 19 19 18 11 -3 -7 -26 -53 6 37 59 67 54 71 102 145 162 151 154 155 139 125 110 112 101 96 99 107 87
82 51 52 7 -23 -39 -31 -39 -18 5 27 31 42 63 90 116 141 161 146 152 165 166 154 139 130 117 117 118 117 124 118 159
53 44 70 39 -10 -32 -28 7 46 79 89 85 93 125 137 139 141 131 137 149 146 144 132 126 131 130 122 118 120 110 104 121
65 48 38 25 27 42 89 166 157 116 119 122 132 143 123 129 159 148 139 136 136 134 134 121 105 100 112 121 124 111 111 113
35 45 87 98 117 116 121 142 126 133 139 113 116 126 135 168 155 146 134 134 140 123 108 101 127 138 144 133 114 104 100 96
59 68 93 98 81 116 143 171 158 131 124 108 129 147 175 150 116 112 114 114 107 101 121 145 149 141 128 120 124 108 115 120
77 111 146 162 161 164 174 152 128 112 128 101 125 157 154 132 92 82 102 94 103 110 130 132 131 131 127 124 127 109 144 107
145 165 207 228 225 209 245 208 139 135 136 162 183 156 124 108 115 115 124 127 139 152 155 160 157 158 131 119 130 135 106 103
240 259 270 271 275 257 225 221 201 142 132 156 136 138 126 130 143 151 164 163 161 162 158 157 162 156 136 151 168 133 118 105
312 304 285 294 277 251 217 179 130 147 183 182 168 144 148 158 182 182 161 142 137 137 150 166 171 162 142 192 164 163 140 113
318 301 300 286 246 215 217 122 204 219 175 136 132 146 165 165 149 129 124 128 121 120 132 146 156 139 157 169 151 172 133 115
289 276 259 235 239 205 161 225 206 153 128 124 123 129 120 118 118 119 117 112 118 134 141 140 139 135 169 155 123 154 142 113
260 237 210 225 168 167 202 184 149 126 102 90 97 101 105 114 128 114 110 123 133 121 115 113 104 95 84 105 135 125 112 101
214 209 203 188 206 185 167 133 105 90 87 91 92 103 111 126 139 116 114 131 134 138 120 99 82 92 133 133 111 110 88 89
205 199 182 160 171 178 146 105 90 107 104 95 106 125 135 137 134 117 130 136 123 114 99 102 99 121 145 140 115 89 93 95
191 183 177 163 192 150 103 102 114 109 117 123 123 126 137 141 149 139 143 149 121 111 120 124 124 129 133 94 89 87 86 88

GFSFLT1_con_3kmhel_048.txt.gz
Helicity
27 20 30 48 91 137 177 244 275 235 179 261 18 -85 27 52 39 45 51 58 60 63 91 109 113 133 136 132 110 110 97 108
74 75 86 95 128 139 126 147 153 124 79 63 -7 -4 42 56 54 51 48 58 60 75 96 109 101 122 109 96 104 111 103 112
70 79 80 81 76 84 88 84 49 11 -5 14 25 32 52 69 77 88 88 87 95 103 123 128 126 116 108 104 96 93 87 113
112 113 109 96 78 58 49 42 19 16 42 52 61 61 77 70 93 102 136 135 137 137 142 149 143 123 132 119 122 110 124 113
139 129 146 112 79 58 36 16 24 43 53 88 97 76 100 155 163 179 189 161 147 145 148 148 142 135 126 119 130 128 130 146
149 131 93 84 91 80 70 99 112 144 116 88 105 138 151 171 179 158 130 108 109 124 137 140 137 138 150 150 135 132 127 158
109 96 91 89 102 127 117 132 118 107 125 136 166 176 165 143 114 89 117 121 135 142 132 132 128 133 127 135 138 118 107 89
84 79 74 103 101 112 101 125 145 155 168 180 168 169 142 97 99 139 128 150 148 130 124 110 116 130 130 121 107 73 46 51
68 69 86 101 110 112 119 145 178 186 199 170 144 148 124 113 150 137 140 128 123 132 125 118 116 102 87 96 90 71 66 79
72 77 90 124 131 150 162 187 221 239 227 182 164 134 154 156 124 105 108 119 121 130 128 127 124 92 77 77 90 89 85 87
89 98 126 145 178 206 244 258 242 221 207 190 128 119 145 138 126 127 140 145 148 142 131 122 112 101 69 90 113 94 74 98
146 161 188 220 249 261 257 239 275 287 215 94 116 155 150 133 139 158 164 137 121 108 101 98 102 106 75 81 92 96 91 94
186 219 226 258 274 274 288 279 287 224 35 129 150 132 121 137 154 155 138 110 100 94 99 106 108 111 102 147 97 101 109 110
226 232 233 265 286 298 305 197 107 79 144 134 118 121 130 146 142 118 112 101 91 90 110 115 127 123 119 97 109 135 126 72
232 253 254 251 246 224 189 131 152 177 146 118 121 116 116 117 116 106 98 99 94 106 114 145 161 126 99 92 77 80 73 89
251 253 235 217 225 227 127 194 183 152 131 110 102 98 98 106 97 101 108 110 114 121 143 130 129 114 113 83 90 85 85 83
250 232 213 203 193 151 181 186 186 129 109 86 90 98 89 88 105 113 118 114 114 125 128 132 117 123 189 136 101 89 70 62
233 213 192 187 185 195 179 175 137 109 84 84 98 97 91 102 116 124 115 118 117 131 130 135 124 141 165 131 98 56 57 68
226 213 218 209 203 191 166 144 109 82 84 93 101 112 106 109 120 119 123 125 135 124 133 133 139 176 142 106 63 33 55 69

GFSFLT1_con_3kmhel_051.txt.gz
Helicity
20 19 25 4 58 115 162 295 260 262 263 205 193 224 217 71 39 61 20 37 39 42 68 59 44 85 119 157 103 94 90 87
34 43 44 68 137 237 308 213 145 156 127 90 61 33 48 16 42 61 41 45 30 43 82 86 86 99 111 94 96 80 81 82
65 62 84 116 158 205 146 97 90 51 54 59 52 47 39 59 87 70 84 65 49 52 61 95 129 104 121 147 118 112 106 121
98 112 181 209 150 121 67 53 34 22 59 80 113 154 119 81 74 62 97 73 98 118 120 116 134 127 147 167 144 127 132 121
121 159 151 122 103 74 77 82 78 95 81 135 106 65 86 158 152 166 159 150 164 139 116 125 134 138 139 163 179 197 148 167
148 155 167 150 104 78 97 107 145 136 145 108 91 102 137 176 166 167 161 106 106 99 87 125 135 142 151 144 116 122 120 122
145 170 160 120 109 111 124 122 119 119 126 141 149 177 184 157 162 136 111 126 120 124 149 153 127 114 117 153 189 155 136 101
122 117 89 95 106 123 114 111 126 144 165 179 196 202 188 162 151 110 156 128 152 174 200 171 153 130 122 154 105 98 118 107
89 91 90 106 119 106 97 123 158 181 202 224 233 174 158 152 146 137 133 142 151 167 144 121 91 79 112 152 110 98 109 106
84 102 100 108 121 115 116 173 209 242 266 264 267 199 191 114 136 120 123 138 139 147 147 110 95 96 91 119 159 81 104 134
101 113 109 102 121 171 163 206 304 246 282 267 252 212 66 132 118 117 140 132 134 124 118 107 99 95 94 110 148 82 102 129
112 114 151 137 208 246 215 288 285 322 293 245 118 107 151 122 130 135 127 138 125 124 112 108 104 105 93 117 122 96 124 126
143 174 184 180 209 214 253 359 386 373 317 51 95 119 121 112 120 129 144 135 125 115 109 112 103 89 100 139 130 119 109 94
198 207 199 191 229 296 314 296 298 206 43 106 130 148 120 119 134 140 133 131 125 115 115 110 108 155 174 144 114 105 89 102
223 224 207 227 269 236 235 237 183 123 120 172 163 145 126 128 134 124 125 126 119 112 113 127 143 115 112 129 115 113 91 83
204 209 230 259 218 209 236 191 150 160 167 153 140 131 113 107 109 119 120 119 104 104 134 123 160 141 104 110 97 97 97 89
176 188 235 214 214 219 208 189 169 177 156 138 126 119 100 99 105 107 105 111 112 131 179 137 144 148 285 220 148 118 102 82
167 191 242 218 243 222 208 199 198 199 155 113 98 95 98 99 94 103 113 118 127 186 152 147 132 86 268 219 159 94 70 60
182 235 267 258 276 260 296 226 211 196 133 92 76 96 94 88 90 101 102 140 168 151 116 129 112 155 257 190 119 64 43 49

GFSFLT1_con_3kmhel_054.txt.gz
Helicity
74 58 51 29 111 192 375 345 253 352 263 182 169 155 139 119 51 -50 -29 71 37 23 25 -2 -14 41 85 83 83 74 86 89
102 80 98 23 164 475 469 297 200 218 173 123 96 73 74 78 42 43 47 48 33 39 70 69 66 109 114 113 125 98 85 92
64 104 80 145 347 480 271 223 184 123 47 32 65 89 70 91 137 120 125 84 57 59 49 85 165 161 133 189 182 144 143 165
105 116 135 275 361 311 206 177 79 6 20 126 108 103 156 176 156 102 111 79 97 109 124 160 185 180 171 164 159 180 178 133
109 205 222 191 197 126 56 57 20 41 148 119 170 116 122 160 178 133 158 98 121 144 153 161 144 118 121 135 166 189 170 164
209 196 109 77 55 34 39 69 123 171 124 168 89 132 177 233 271 290 237 148 127 116 125 97 154 161 149 169 179 275 230 212
196 172 188 224 122 152 142 172 240 182 159 200 166 224 324 344 270 252 157 222 170 179 197 276 296 254 218 205 213 206 186 172
164 222 225 176 163 167 164 196 195 167 187 214 266 309 301 250 233 236 256 224 188 204 238 247 223 182 154 145 163 241 196 167
169 196 189 148 131 127 95 159 193 200 229 281 291 264 293 276 224 288 214 182 175 185 198 203 184 162 150 140 161 195 224 155
138 176 180 173 135 127 101 171 246 296 353 337 304 301 259 204 187 188 208 195 195 204 190 180 159 142 139 139 160 185 224 185
126 195 195 212 197 173 151 203 366 514 400 402 336 310 185 108 216 188 201 203 190 166 173 163 145 137 146 142 143 196 182 120
120 166 231 215 298 332 300 282 456 439 511 334 308 263 166 161 182 181 190 183 177 186 171 156 144 151 144 149 185 197 217 218
152 169 267 325 373 377 374 364 415 532 309 214 153 77 107 144 138 168 190 207 197 190 170 150 150 173 226 183 215 212 205 187
179 261 401 399 372 346 271 418 467 304 208 105 125 120 192 168 176 189 206 197 202 183 153 145 157 208 138 132 166 154 165 142
285 392 405 357 296 346 431 404 280 200 162 212 190 222 234 210 174 161 152 166 178 163 127 149 227 255 157 145 164 123 99 91
308 324 325 260 373 402 348 262 215 228 262 197 229 264 237 193 143 119 143 163 149 119 129 244 211 169 162 203 151 155 132 135
173 220 234 308 375 322 238 277 229 325 212 239 240 224 182 148 107 112 115 132 149 145 235 252 186 157 238 244 228 182 169 150
169 223 276 352 333 362 351 300 403 313 292 239 253 174 141 111 97 102 117 129 130 171 264 208 144 142 230 220 197 205 161 110
217 273 342 412 479 471 474 448 390 333 300 254 229 119 98 93 91 107 112 132 172 199 235 165 164 175 233 200 138 131 124 103

GFSFLT1_con_3kmhel_057.txt.gz
Helicity
124 153 203 179 238 276 317 295 293 273 259 231 206 163 106 76 49 31 51 65 75 -10 46 -0 46 61 41 38 55 75 66 70
154 158 210 266 415 466 422 370 297 315 254 210 155 109 75 53 70 98 102 85 95 86 83 90 63 61 60 62 68 70 51 47
188 173 240 402 440 445 394 345 212 187 178 117 100 101 81 101 84 121 138 112 109 79 73 62 67 77 100 105 93 89 82 77
205 197 260 377 432 408 338 245 151 115 85 86 116 142 153 153 143 157 145 136 102 67 47 49 81 103 117 101 92 104 96 86
220 293 307 302 273 218 186 83 63 64 74 111 172 130 169 146 159 135 135 101 65 86 75 103 126 120 93 72 88 121 154 148
296 258 196 190 164 133 112 69 91 63 5 167 159 144 220 273 301 245 220 191 193 164 148 136 140 154 168 169 167 180 186 192
366 285 234 147 112 140 78 63 104 197 240 236 236 310 358 411 369 322 274 280 321 323 308 307 268 252 236 205 174 168 190 211
348 384 274 222 153 151 174 261 278 282 348 367 364 395 387 370 353 321 291 223 310 255 276 247 218 197 186 178 165 153 174 233
352 369 343 287 251 248 289 300 310 298 316 345 360 390 361 318 280 374 332 218 243 255 223 195 183 177 164 157 142 137 153 209
362 390 370 270 224 193 225 269 282 298 336 358 342 291 284 346 367 407 271 180 214 224 204 181 177 166 151 154 152 141 200 195
306 368 359 285 196 138 137 221 391 451 441 442 358 331 330 257 239 153 176 212 212 206 191 175 163 152 163 206 192 219 241 232
290 345 340 299 241 182 283 412 502 538 571 516 406 306 254 240 147 174 200 220 221 210 188 172 152 185 202 190 178 165 187 218
264 297 359 331 394 448 515 566 558 522 489 427 286 274 237 125 144 200 232 239 221 205 190 169 151 212 187 174 164 145 158 166
294 330 429 479 536 545 573 586 596 514 351 229 233 195 227 265 235 233 214 189 176 185 168 135 160 210 202 170 130 125 145 131
334 456 529 493 463 541 633 602 470 305 254 292 287 377 263 213 220 186 165 154 139 138 133 157 219 190 166 127 137 145 163 137
494 567 534 432 492 555 527 454 331 280 356 418 441 321 271 255 304 176 139 129 108 129 154 246 234 193 153 142 156 194 214 209
427 420 365 410 446 408 379 346 340 437 463 438 375 296 310 267 256 233 125 93 117 151 205 241 203 164 167 162 193 225 242 172
293 268 311 350 385 419 445 528 556 498 419 395 323 304 242 264 148 87 79 114 152 179 184 198 163 153 164 188 190 180 172 136
323 391 483 532 600 664 704 641 536 460 447 430 386 355 123 80 63 74 120 144 132 125 136 183 213 170 152 160 165 166 130 120

GFSFLT1_con_3kmhel_060.txt.gz
Helicity
-16 21 -20 38 87 109 156 148 178 199 232 243 229 222 205 140 120 137 156 136 135 148 150 133 95 82 63 54 21 16 -19 3
-28 -10 33 136 137 166 160 209 205 249 259 248 228 198 138 102 91 141 139 111 134 131 93 62 48 57 38 7 21 14 18 13
40 48 161 270 267 219 208 212 231 233 233 218 199 155 87 82 106 115 125 156 146 113 69 73 53 35 33 68 56 57 48 54
285 267 310 319 312 278 275 235 228 191 190 249 211 189 177 164 153 154 136 131 121 105 47 22 16 10 41 59 72 75 78 52
424 382 337 316 322 306 283 247 165 152 225 181 145 166 188 122 136 140 141 123 100 69 20 64 66 61 118 99 83 78 86 80
415 387 316 250 330 288 224 139 154 149 107 83 133 155 139 157 166 177 143 141 171 200 198 202 186 192 174 162 145 127 130 143
374 312 287 267 224 233 169 140 60 65 80 128 148 204 212 255 261 256 288 352 273 303 328 209 236 222 219 197 174 154 145 164
408 388 286 245 214 177 142 144 129 121 174 172 239 335 338 378 355 390 349 366 385 491 382 198 235 223 201 178 169 171 168 172
375 389 250 268 208 130 177 190 249 271 331 369 430 452 447 402 443 402 316 274 246 260 139 204 158 145 151 165 150 141 139 149
373 363 299 223 187 205 232 285 290 325 363 375 395 398 374 406 389 332 322 163 126 211 216 180 139 145 150 135 132 144 165 175
327 294 278 226 231 217 251 279 312 315 336 324 304 300 351 264 348 385 195 244 200 185 180 170 160 158 138 139 132 155 177 155
309 301 286 273 243 280 267 318 370 371 371 358 355 364 451 254 213 136 192 241 219 182 174 171 153 146 130 145 148 175 168 141
277 294 335 322 291 327 341 432 497 570 569 535 500 521 529 168 231 315 165 201 195 223 189 153 146 140 152 162 173 161 147 126
343 370 387 383 432 482 549 561 622 669 606 600 546 247 283 298 326 310 167 231 186 155 166 167 121 138 162 168 150 146 131 112
413 387 433 502 599 674 698 571 586 514 454 411 375 346 325 356 254 213 245 216 222 166 106 109 146 183 176 153 144 130 132 154
413 543 659 717 678 654 590 531 448 412 477 459 404 394 427 343 302 244 387 247 124 62 106 154 187 207 183 162 156 135 168 205
519 595 573 556 551 523 449 384 477 501 459 417 411 410 351 368 421 269 173 80 67 123 126 128 162 180 160 146 170 169 194 198
472 449 448 388 362 373 412 480 515 522 485 463 455 476 482 391 180 135 103 79 102 111 117 112 145 172 162 170 163 179 175 157
334 345 368 375 432 482 554 567 578 576 558 571 509 400 384 193 164 108 68 87 102 109 106 104 146 176 158 147 146 176 177 152

GFSFLT1_con_3kmhel_063.txt.gz
Helicity
-34 -2 12 -7 5 43 114 111 131 155 183 184 178 184 191 184 174 179 184 207 193 170 139 130 124 108 72 53 42 28 -10 -23
-82 -47 -53 -49 -3 73 125 179 190 247 229 213 204 204 193 184 163 154 149 167 149 134 128 107 77 55 12 10 5 -2 -14 -0
4 -30 -17 16 57 92 125 171 220 224 214 195 202 211 175 161 141 146 169 142 112 99 94 65 41 53 40 10 15 31 31 35
49 77 92 105 115 139 161 191 215 201 201 249 246 274 235 198 171 172 111 84 82 99 97 97 72 51 25 11 29 66 65 57
103 139 161 175 139 153 199 204 231 202 233 250 231 222 249 162 149 126 95 87 111 160 180 144 108 88 70 52 68 76 99 95
170 229 214 228 213 228 247 231 245 187 226 196 146 156 155 160 149 166 147 183 218 241 204 160 231 228 182 151 142 117 91 100
216 230 259 276 246 222 277 279 180 157 232 158 109 135 156 179 202 225 249 334 322 265 250 216 107 218 236 201 145 144 131 121
330 337 291 277 219 203 223 233 228 206 145 84 88 132 164 181 269 351 403 455 492 197 372 249 145 207 191 182 158 135 122 132
410 383 348 262 179 160 211 249 194 109 77 115 147 186 198 263 361 416 451 432 218 299 332 196 198 203 159 149 127 118 129 144
396 375 310 244 205 203 183 194 172 141 184 230 256 277 360 449 548 448 537 226 214 139 221 123 237 162 165 132 116 114 124 108
273 293 248 210 153 149 200 222 215 228 273 309 349 373 427 478 530 517 312 347 125 211 223 159 181 206 163 146 127 106 110 112
235 237 226 174 201 249 223 253 303 309 314 353 396 394 482 534 635 430 222 162 127 194 252 216 235 166 148 115 95 103 128 124
194 216 263 261 266 265 290 308 320 333 362 465 547 650 611 651 416 164 264 200 208 196 170 165 176 154 92 98 114 144 141 142
155 209 269 300 315 342 428 465 552 538 553 577 642 508 482 329 276 232 247 262 224 251 206 162 140 90 100 124 137 140 154 160
235 297 339 437 471 456 589 605 644 628 550 550 477 412 266 291 289 334 326 276 218 182 152 147 104 89 129 147 150 158 175 165
332 412 483 515 522 560 562 540 625 542 545 416 392 379 383 365 407 368 292 254 212 154 146 96 87 111 131 134 155 176 181 179
359 427 508 508 564 543 527 580 547 509 475 448 443 426 427 411 367 343 297 220 158 175 134 100 88 102 105 127 173 199 196 203
290 389 462 468 452 514 518 523 493 474 477 469 477 447 396 370 353 341 236 195 181 122 98 92 86 97 103 126 158 215 216 205
267 356 371 355 406 415 429 439 468 494 506 471 411 381 387 373 310 205 218 190 124 102 92 92 109 122 108 131 157 213 209 182

GFSFLT1_con_3kmhel_066.txt.gz
Helicity
-42 -2 22 61 61 57 38 31 42 52 72 84 100 113 107 100 120 138 151 151 156 169 143 112 94 91 87 74 63 68 41 16
-41 -40 -19 -23 -19 -12 34 81 71 119 136 140 138 131 134 126 121 148 157 159 160 148 115 104 104 121 87 53 20 -0 12 14
-69 -50 -7 -4 17 34 57 79 127 140 156 154 152 169 144 149 158 160 140 148 127 113 123 125 118 100 73 30 9 7 4 9
-25 -5 7 22 24 64 105 113 153 172 186 250 237 249 213 186 177 151 126 115 109 133 148 149 129 106 45 23 12 19 21 40
-19 4 1 49 36 58 107 153 172 188 224 264 277 239 209 154 175 136 142 152 172 172 173 169 152 88 58 116 73 126 105 107
40 48 53 66 91 121 162 177 190 206 240 272 229 189 141 150 185 175 189 201 221 227 249 169 150 199 124 164 141 203 155 147
91 102 111 133 174 171 203 236 250 216 238 256 198 166 125 164 186 217 243 265 232 262 240 254 170 159 182 174 189 198 159 175
204 236 238 216 209 199 141 197 244 254 263 264 175 79 115 151 193 257 287 278 282 343 326 209 214 134 247 167 204 210 177 177
258 296 330 300 251 207 199 174 228 321 245 184 125 110 138 153 222 264 315 370 401 329 358 218 106 241 236 247 203 176 175 169
264 302 320 346 269 136 146 174 225 265 222 154 117 128 158 224 248 364 457 473 537 441 307 167 148 235 215 175 167 171 147 137
224 272 295 278 228 145 149 165 174 168 143 134 161 207 257 321 443 549 515 606 494 196 226 126 184 189 215 209 165 137 125 114
132 146 175 232 187 196 151 154 152 131 137 194 228 245 371 536 516 538 488 467 306 122 140 137 211 166 189 181 157 125 114 109
136 145 192 251 233 199 180 150 165 194 265 344 410 474 544 568 605 489 204 243 115 119 114 158 171 177 175 165 145 123 113 129
102 118 146 179 224 250 233 275 342 392 466 502 408 568 528 396 494 178 229 147 105 182 177 195 190 177 163 127 116 123 136 144
116 132 172 243 286 361 364 386 451 497 494 493 544 452 324 270 246 212 182 221 252 243 228 197 181 150 115 105 127 139 147 163
140 209 268 365 378 372 393 430 478 466 523 588 457 277 332 334 302 216 341 297 260 258 188 194 170 123 124 126 133 145 161 172
137 242 334 355 348 379 400 438 505 520 575 549 292 356 361 348 270 414 238 297 280 144 190 178 148 139 109 96 117 150 164 182
136 209 302 352 377 415 435 423 436 456 391 366 347 353 349 311 345 316 319 200 165 172 166 163 152 128 99 88 94 176 203 206
168 204 259 291 313 341 373 385 397 381 383 382 362 334 363 346 399 203 149 181 174 157 151 138 132 119 96 99 113 191 221 225

GFSFLT1_con_3kmhel_069.txt.gz
Helicity
25 39 19 47 47 63 67 50 4 11 13 21 22 30 40 50 54 72 93 97 111 146 131 121 109 119 102 96 95 71 65 72
20 39 49 29 15 18 13 -3 11 45 43 44 32 48 65 67 63 70 91 114 117 136 147 140 132 113 118 110 88 55 46 45
-3 3 2 14 47 55 11 23 55 49 47 75 80 93 77 83 77 89 98 114 130 149 152 149 136 149 139 133 77 16 43 39
38 29 32 33 37 55 50 52 81 79 79 134 141 176 151 132 126 113 96 127 152 162 170 158 145 131 121 109 54 -17 42 52
-1 5 14 38 21 15 20 38 66 86 115 127 144 171 207 140 105 124 135 147 167 188 188 162 166 163 139 62 53 69 106 96
37 24 2 -1 9 35 54 74 100 115 131 129 169 167 191 148 132 161 171 178 191 216 202 207 183 159 186 92 62 68 143 131
19 5 11 20 37 53 75 97 101 124 138 133 156 171 154 138 131 172 185 188 212 209 234 223 263 267 243 141 80 156 203 155
64 68 67 58 77 91 107 101 121 134 177 181 197 208 132 99 116 172 188 199 225 270 285 346 343 351 201 68 106 181 177 156
81 101 137 152 136 120 124 115 130 129 170 217 215 216 169 76 103 143 158 197 250 341 378 417 250 218 122 122 200 157 172 160
62 91 154 179 189 168 133 113 134 171 219 229 202 203 123 72 88 134 207 251 326 421 429 386 381 29 140 169 192 182 171 166
40 66 115 157 199 185 128 110 120 171 198 184 172 144 91 84 147 239 293 368 387 318 277 265 42 78 126 184 199 178 173 160
46 68 76 116 142 124 116 106 120 145 135 136 138 127 124 160 238 290 385 444 418 220 158 110 24 136 172 176 169 179 162 126
42 70 86 96 103 98 102 89 76 75 109 127 155 207 202 217 284 371 304 379 172 173 129 151 124 128 148 161 161 156 133 120
32 60 62 68 82 112 123 110 144 162 198 223 222 247 230 349 383 282 214 142 128 139 228 148 146 162 158 163 147 123 131 137
46 49 53 53 68 109 123 163 194 243 284 324 351 387 463 430 208 147 253 338 144 210 150 192 154 168 182 151 139 133 138 149
69 78 101 111 110 149 175 216 244 268 324 402 448 535 483 182 207 308 358 156 141 156 173 141 179 185 168 140 136 136 143 150
78 119 156 154 166 207 233 248 250 298 304 335 391 449 166 208 292 356 73 108 237 151 122 179 174 145 135 126 128 128 127 139
125 127 147 153 178 208 215 184 185 205 273 304 251 243 257 283 266 106 208 137 114 107 136 149 123 117 120 114 114 135 144 148
94 100 133 162 181 212 233 234 261 333 317 285 264 270 292 271 180 227 71 138 116 111 128 122 121 113 110 107 110 137 155 159

GFSFLT1_con_3kmhel_072.txt.gz
Helicity
-72 -81 -65 -59 -4 7 8 21 32 -20 -37 -24 -6 -2 11 27 24 26 51 48 47 70 98 122 112 112 106 100 97 98 78 53
44 44 51 41 44 53 51 38 25 -42 -46 -35 -21 -9 13 26 26 39 52 59 77 93 123 136 126 115 119 115 120 91 57 20
73 63 50 62 51 30 24 27 -6 -18 -21 -6 8 26 24 28 43 58 64 76 89 104 142 144 133 140 133 131 98 88 63 29
41 45 37 29 28 42 32 11 7 -0 2 22 39 60 51 49 60 92 75 95 112 120 138 158 159 147 159 157 133 103 47 50
52 47 36 32 25 12 7 -17 -25 -7 16 45 49 49 56 64 97 102 93 108 120 126 144 172 167 164 179 191 167 115 88 73
44 55 45 28 15 1 -10 -2 7 28 50 55 68 66 79 116 186 132 90 123 116 130 146 181 170 169 228 224 186 165 170 106
51 43 36 36 36 26 40 49 51 69 71 85 93 99 128 135 177 177 130 105 127 140 156 184 212 248 288 205 132 95 88 122
30 41 47 47 89 87 79 77 70 84 98 125 109 108 157 135 143 162 90 118 141 162 182 220 250 287 228 279 118 76 127 139
-1 19 57 65 102 108 111 103 81 93 109 121 123 104 115 129 136 117 77 97 118 168 197 227 310 328 243 165 71 82 113 149
13 6 26 60 92 104 119 106 78 64 115 109 115 138 138 146 123 91 76 103 171 237 253 321 329 280 271 5 40 102 138 146
32 32 39 29 65 88 108 91 88 63 98 123 147 130 113 141 143 114 128 192 225 232 303 334 246 158 89 89 89 115 138 164
38 50 40 50 66 70 81 101 101 83 98 109 120 100 126 136 169 169 191 218 258 236 289 246 97 127 132 126 89 129 156 141
19 34 63 86 82 85 81 82 97 106 98 111 118 201 257 268 220 228 261 245 160 219 182 94 96 137 99 86 111 137 141 125
44 57 67 71 80 83 90 98 116 135 136 195 238 238 199 166 283 282 298 276 108 106 110 103 173 76 99 90 125 130 115 108
38 57 57 70 81 88 90 138 200 195 186 195 241 288 432 420 419 293 302 184 80 200 104 62 115 101 102 124 121 112 101 102
49 51 92 115 123 128 144 195 222 218 224 308 374 367 374 384 352 304 220 174 240 85 19 105 104 105 132 113 112 106 101 106
41 58 113 161 184 179 207 244 233 222 230 235 306 373 374 349 270 191 165 250 42 87 70 78 111 106 189 133 116 105 108 120
92 97 120 179 215 211 221 225 246 277 290 307 316 312 282 201 158 186 158 79 75 71 86 116 103 80 154 105 113 122 131 140
139 143 143 165 197 210 217 257 289 311 321 318 291 278 268 248 213 170 143 47 96 90 107 105 93 85 135 107 109 126 144 154

GFSFLT1_con_3kmhel_075.txt.gz
Helicity
-66 -41 -19 -71 -65 -79 -49 -48 5 -1 -34 -27 -28 -35 -34 -30 -50 -31 20 36 37 58 97 93 89 97 107 100 98 101 103 99
-17 -34 -81 -25 -42 15 11 6 -4 -11 -17 -6 -14 -13 -31 -20 15 22 32 41 55 70 88 76 87 109 118 116 123 112 107 89
62 55 31 66 60 47 30 30 -2 -12 -20 -17 -19 -12 -6 -4 18 34 40 79 74 71 85 82 99 124 137 133 121 128 114 97
92 73 59 41 46 9 9 -5 -11 -16 -27 -27 -2 27 21 30 35 55 69 73 78 72 96 106 108 135 137 137 142 138 119 125
71 58 55 45 32 35 5 6 8 -2 -27 12 19 58 41 39 67 102 99 134 93 72 97 115 128 129 148 146 182 199 175 149
96 74 70 54 31 23 20 -8 -8 31 24 -6 59 28 40 102 156 111 120 130 94 84 105 123 130 144 178 192 256 187 212 173
93 87 57 63 65 50 36 25 24 46 98 40 91 57 111 166 179 141 139 155 143 131 117 129 138 149 255 238 223 223 146 106
54 67 95 55 84 88 70 57 60 94 120 100 73 83 116 154 139 157 193 167 177 140 125 155 168 232 259 225 223 192 124 113
73 67 70 72 96 132 97 92 78 107 100 109 101 98 162 176 117 141 182 137 163 138 142 168 196 254 264 244 198 171 122 78
60 55 71 86 106 120 111 93 90 98 104 106 107 100 132 184 145 169 156 126 179 149 160 222 296 338 304 306 203 90 64 106
26 55 82 77 135 113 112 78 77 84 117 111 134 103 116 136 214 189 152 186 157 266 275 313 414 285 310 165 41 59 79 126
29 33 49 83 130 112 111 94 84 121 166 113 149 168 152 192 181 201 189 290 398 398 410 320 185 195 140 63 77 109 113 103
31 26 33 58 94 122 117 82 89 176 163 203 230 181 294 336 349 367 423 510 415 322 239 106 115 109 99 146 95 85 102 119
55 47 52 68 84 102 115 122 85 114 261 371 287 314 335 329 325 339 562 551 307 302 136 94 121 48 23 64 76 99 117 106
43 59 56 68 83 106 112 157 192 322 460 340 302 333 382 415 439 444 430 450 471 290 125 81 93 -55 45 75 102 123 108 95
58 58 95 87 110 128 164 236 309 353 316 321 374 459 395 334 304 298 366 356 283 125 147 82 -0 69 101 101 121 118 117 116
107 77 80 129 130 179 268 355 335 318 327 350 400 437 409 399 373 358 333 201 125 67 99 89 123 91 229 187 148 129 124 109
116 78 95 169 172 316 417 380 273 260 348 377 337 356 384 385 320 284 190 96 81 71 109 108 119 107 176 162 156 127 113 105
139 174 203 197 295 293 294 376 405 409 346 290 307 332 324 261 244 206 157 146 121 134 112 128 125 133 170 132 134 125 122 117

GFSFLT1_con_3kmhel_078.txt.gz
Helicity
9 70 62 70 66 30 -76 -115 -154 -152 -146 -190 -139 -51 -13 15 -7 1 -23 2 -14 3 74 149 109 103 120 83 100 90 91 112
-64 -70 -66 -31 -81 -117 -104 -75 -71 -63 -98 -69 -23 -4 -13 -60 -77 -49 -18 -4 18 50 144 139 85 107 123 138 129 123 126 109
55 6 -31 -71 -95 -60 -44 -14 13 -2 -7 -7 -12 -14 -26 -41 -30 -14 13 36 39 89 149 132 78 162 202 150 124 111 154 168
71 42 20 66 46 23 29 49 54 33 8 -56 -26 4 12 -0 -20 30 65 75 85 99 137 143 116 197 206 137 125 151 153 193
135 91 51 57 66 65 18 -0 54 8 -36 8 22 42 68 35 55 70 100 93 104 91 145 168 151 202 180 161 141 196 220 293
199 108 117 96 101 49 -5 -2 35 26 -21 -25 57 102 83 82 103 141 197 144 154 193 157 160 235 214 194 179 234 260 223 214
217 140 131 115 85 103 35 -17 72 84 69 51 33 116 87 129 206 222 198 193 186 111 178 247 220 189 251 314 322 262 229 186
283 230 173 156 125 122 111 87 9 89 180 96 132 62 126 204 273 297 226 198 222 167 162 319 292 218 348 413 326 264 205 167
277 326 286 188 196 215 175 165 82 33 273 240 167 153 126 200 257 270 192 193 206 222 229 308 322 370 442 426 305 263 234 208
169 202 310 332 255 280 285 205 142 81 237 283 214 160 119 240 245 236 191 202 179 195 261 337 404 483 464 395 302 281 308 265
6 105 176 311 300 319 323 266 178 140 134 252 260 227 146 195 211 199 228 212 181 264 388 520 559 488 402 376 341 373 115 57
10 7 37 200 279 296 382 317 210 155 150 207 244 274 268 203 252 333 365 361 369 475 705 577 538 399 324 235 170 74 113 119
61 40 52 63 155 253 315 417 315 155 142 208 386 375 324 311 411 441 413 378 429 586 651 527 414 280 207 124 142 184 140 128
61 81 52 34 62 197 282 318 240 116 132 402 571 411 413 382 353 361 426 452 490 482 432 473 503 368 175 137 134 75 119 141
33 102 105 80 83 111 186 254 265 262 306 493 593 445 473 485 470 439 428 402 434 395 400 411 238 310 148 83 85 121 170 195
56 37 102 166 136 152 159 329 443 483 554 547 528 554 535 471 435 417 425 424 378 427 314 248 205 139 115 85 183 276 294 235
128 149 93 188 270 278 395 502 496 528 579 582 488 437 454 395 402 514 458 402 350 308 194 159 119 108 254 252 266 259 211 159
232 154 144 307 497 452 469 539 540 549 479 432 401 394 399 446 534 453 399 315 249 231 103 120 169 221 224 230 218 211 165 147
225 186 303 373 456 502 550 501 501 455 338 344 328 340 379 411 427 375 292 240 170 119 137 227 228 212 234 216 191 155 142 134

GFSFLT1_con_3kmhel_081.txt.gz
Helicity
63 101 142 130 110 136 156 129 200 170 120 72 120 84 28 -6 -77 42 45 25 11 3 84 138 112 146 140 139 108 86 79 83
37 6 -27 -15 -19 60 94 44 25 21 -12 -32 -84 -84 -66 -55 -95 -42 -42 -26 -28 -21 51 102 109 155 141 131 127 154 144 103
47 22 -28 -102 -95 -126 -110 -85 -100 -116 -99 -116 -67 -100 -95 -82 -58 -53 -31 -16 -22 56 106 105 158 168 154 163 189 178 150 121
45 18 21 -63 -90 -98 -58 -53 -41 -56 -71 -67 -56 -67 -61 -25 -29 -14 9 -2 -2 101 136 160 165 206 215 190 195 185 192 145
103 77 54 -10 -76 -67 -9 6 32 -1 -18 -41 -35 -31 -5 -2 5 -4 19 69 64 91 160 172 223 263 272 236 202 204 241 225
181 134 92 59 27 -7 3 13 11 7 8 -8 -47 17 65 54 36 47 74 96 95 108 156 185 247 310 267 214 231 249 276 295
205 177 124 80 104 76 49 43 60 59 56 36 -21 34 118 123 107 140 170 167 148 142 205 263 235 320 278 245 267 312 278 271
287 205 190 134 155 125 106 59 59 107 109 97 73 121 180 192 200 206 220 210 164 148 192 261 271 326 379 416 449 401 332 267
339 334 278 222 197 175 148 110 56 79 131 129 88 131 192 212 258 275 230 223 193 182 184 223 281 435 504 582 573 375 348 280
394 368 340 317 287 302 237 189 117 112 139 156 169 163 183 291 336 379 293 257 224 204 198 237 404 580 619 755 541 397 294 283
303 368 370 345 339 350 334 274 231 200 159 195 205 218 256 304 439 394 362 249 246 264 289 467 641 841 851 632 368 237 300 286
98 105 227 370 309 316 332 318 256 211 144 233 270 285 305 389 396 358 287 302 311 365 451 520 633 783 403 493 457 379 227 194
91 39 66 186 285 333 345 350 346 315 294 361 291 366 347 389 332 326 367 369 353 399 382 459 523 508 453 465 421 288 202 202
105 136 66 44 120 177 277 379 402 348 352 296 351 468 472 429 418 409 436 429 380 366 377 436 442 453 467 356 284 296 219 188
58 149 127 90 54 120 216 319 348 363 267 339 494 563 623 380 474 568 452 402 409 389 422 476 412 388 382 351 252 171 177 163
62 103 122 155 198 223 185 308 400 446 504 476 502 575 563 474 525 481 410 357 405 482 434 434 342 355 400 218 217 244 258 271
132 168 132 192 341 404 434 484 515 475 498 476 503 509 469 417 444 440 497 545 459 475 425 370 392 273 307 145 262 287 265 259
215 266 261 372 462 500 524 511 461 475 514 476 496 477 451 441 441 439 448 446 460 422 368 421 439 251 244 252 273 264 244 214
263 257 350 464 492 530 512 493 517 546 475 378 329 307 308 335 340 378 454 430 396 393 337 292 187 275 314 316 295 256 232 222

GFSFLT1_con_3kmhel_087.txt.gz
Helicity
204 113 80 102 139 211 255 332 354 321 378 295 342 329 475 354 322 285 214 179 115 159 72 48 79 90 110 138 132 121 97 90
185 167 111 75 102 121 100 217 284 331 410 223 308 496 488 514 343 304 189 276 121 40 -6 46 78 76 99 114 156 144 125 131
147 119 91 33 86 116 121 136 184 316 312 255 413 440 540 173 263 203 259 92 -0 -41 -55 -62 102 124 126 159 202 176 145 150
134 91 56 52 62 49 45 77 110 80 99 140 147 283 190 -0 30 83 64 36 36 71 -3 89 93 83 146 169 184 220 220 177
120 107 67 34 68 63 60 72 55 14 37 8 42 14 -21 -85 -118 -68 -41 -39 -53 -20 -25 -0 60 114 138 140 179 236 302 286
75 92 86 80 45 42 32 46 34 -6 -33 -12 4 -1 -66 -115 -164 -246 -172 -145 -113 -92 -0 22 57 93 133 175 228 233 279 310
13 42 78 91 61 30 28 33 3 -21 -51 -70 -104 -89 -96 -119 -186 -245 -217 -156 -99 -73 37 47 53 102 167 208 245 235 227 290
118 103 69 104 158 93 55 40 12 -8 -38 -51 -90 -98 -92 -75 -98 -176 -200 -163 -116 -103 -32 48 79 126 182 248 246 221 269 344
132 148 120 95 121 144 98 70 42 22 -15 -40 -61 -85 -96 -112 -103 -91 -114 -119 -122 -69 -17 48 75 166 225 247 298 345 397 387
148 164 169 115 112 143 148 87 25 37 17 -24 -32 -48 -32 -41 -56 -53 -33 -20 -14 26 101 134 170 200 225 306 376 418 443 521
130 179 218 197 201 190 162 133 78 60 59 52 34 25 19 -5 -18 14 40 42 63 120 170 215 241 270 258 332 390 418 475 511
188 202 242 291 301 298 319 253 194 127 128 110 78 65 60 52 50 53 72 114 178 236 233 250 289 281 232 311 392 409 455 485
209 205 231 286 312 373 406 401 355 271 168 202 180 146 122 128 144 169 198 278 342 335 319 264 235 281 363 370 415 379 425 452
111 123 163 226 274 349 393 424 446 422 345 191 147 184 214 233 251 292 384 404 427 438 212 277 243 268 322 325 336 351 391 412
91 91 128 154 186 270 322 365 429 442 429 374 274 263 339 313 285 344 398 467 414 264 107 178 184 248 260 285 340 363 420 451
37 94 102 119 164 193 209 197 247 309 317 314 322 271 313 337 371 396 427 421 353 312 288 237 255 294 288 286 353 392 418 560
82 72 104 82 135 219 233 236 252 297 283 282 354 385 388 372 367 367 381 370 366 304 248 298 363 331 334 357 437 548 507 356
59 81 97 89 139 187 205 260 330 343 361 357 358 379 391 392 358 311 315 307 276 275 308 397 396 491 393 377 591 512 505 399
117 126 120 144 181 258 311 322 304 319 344 333 322 280 244 253 264 259 248 289 293 307 364 447 544 342 417 472 585 516 325 383

GFSFLT1_con_3kmhel_090.txt.gz
Helicity
132 149 123 99 107 78 97 112 172 195 185 160 213 226 140 121 145 164 209 192 168 134 152 112 175 133 135 133 132 129 94 106
149 173 179 64 69 101 113 160 188 178 230 245 237 200 142 143 146 221 392 150 150 135 116 117 115 92 99 118 149 136 147 141
147 138 155 31 44 73 84 133 260 174 290 302 333 273 240 296 467 375 278 329 135 112 146 104 99 92 94 124 163 178 152 155
139 119 113 61 73 78 63 90 171 220 257 381 204 307 310 344 445 385 233 81 71 156 60 63 72 78 91 107 142 195 204 155
129 102 106 77 32 34 67 93 136 220 274 264 185 223 268 253 314 180 210 150 64 165 53 58 60 82 86 129 173 188 214 242
142 104 80 97 75 33 27 60 94 140 158 162 114 117 86 183 196 151 -64 -83 81 32 43 57 51 87 120 141 155 173 220 243
128 107 57 61 75 74 40 31 21 30 64 47 47 62 20 22 -14 -82 -145 -135 -108 12 -2 27 59 93 143 145 161 185 201 234
148 159 144 79 60 68 74 56 27 15 7 8 32 36 43 45 -11 -91 -182 -189 -187 -186 -91 -56 10 104 125 151 186 212 254 248
157 156 148 151 142 81 61 58 17 17 -10 -24 -25 -6 -25 -37 -64 -87 -126 -153 -175 -158 -131 -83 -36 101 137 169 178 233 264 268
153 163 170 171 125 133 123 96 70 50 21 -14 -35 -37 -42 -65 -98 -131 -150 -149 -114 -82 -41 1 40 103 157 205 212 213 267 290
84 148 201 208 198 178 158 133 120 118 97 47 1 -17 -18 -33 -48 -79 -93 -129 -110 -61 -35 17 83 132 172 209 212 221 215 248
62 90 153 223 236 244 213 192 155 154 151 125 104 81 58 25 -9 -9 -2 -11 -14 -38 -38 6 54 138 201 233 219 232 115 186
53 51 98 173 257 287 345 328 274 244 220 168 157 190 169 149 127 95 78 53 40 54 90 128 183 200 189 166 163 189 211 213
56 93 127 131 159 199 296 340 359 353 274 194 150 186 193 131 108 97 112 141 149 188 191 248 241 226 373 262 162 165 337 350
62 89 103 120 145 163 177 198 223 288 325 277 184 187 243 213 188 187 212 262 213 221 206 185 195 312 256 215 132 190 311 345
66 73 63 138 146 139 152 163 195 223 216 211 213 224 237 225 228 234 254 220 232 235 239 294 298 218 215 228 271 300 300 313
47 76 93 142 191 161 167 168 197 239 234 207 155 158 184 229 263 280 285 252 261 264 298 280 293 223 200 239 284 321 362 420
59 65 87 86 119 120 154 195 233 259 247 238 255 222 208 228 266 270 245 260 284 270 257 248 187 171 201 273 346 465 463 558
39 114 111 103 115 143 191 202 250 285 305 293 264 253 238 224 212 195 224 233 221 214 238 277 316 294 365 426 480 496 548 437

GFSFLT1_con_3kmhel_093.txt.gz
Helicity
108 113 139 119 65 39 74 88 89 108 194 265 255 290 264 214 161 152 109 154 151 183 200 177 175 152 118 155 123 101 87 102
123 134 156 97 48 56 54 92 80 136 118 188 253 295 209 180 181 188 171 172 134 135 160 183 142 82 131 150 143 111 131 125
119 116 131 95 13 25 60 80 128 102 130 165 179 167 165 174 137 142 143 148 194 139 140 146 105 96 98 98 136 163 147 131
113 123 110 106 74 32 70 96 109 124 133 223 305 328 248 116 144 247 222 251 215 136 90 133 107 110 95 99 146 126 145 130
92 104 134 82 97 57 39 68 123 170 144 140 183 323 222 144 174 224 316 291 284 222 152 149 135 99 85 82 132 133 145 141
87 80 85 74 63 90 75 68 75 107 121 137 178 182 174 283 243 220 309 309 292 232 155 74 95 36 35 91 110 114 161 193
57 67 76 84 57 58 76 96 101 120 156 148 98 98 130 196 189 194 337 296 232 49 -68 -115 -76 -4 47 79 109 123 156 185
81 86 89 81 78 71 68 66 72 82 94 111 115 59 5 66 98 116 183 170 118 21 -18 -20 21 20 29 40 62 115 180 143
80 95 80 89 83 71 71 72 59 55 55 37 36 14 -24 -20 6 20 48 74 66 -23 -24 -44 -83 -82 -35 16 60 112 158 189
84 86 70 94 119 103 74 64 53 53 44 34 28 -8 -46 -62 -66 -63 -72 -83 -77 -59 -77 -118 -138 -106 -55 -3 50 73 123 137
44 39 43 49 103 129 104 89 68 56 42 40 32 36 24 1 -28 -40 -65 -94 -89 -96 -116 -94 -97 -68 -20 24 60 63 127 157
34 13 -2 25 70 111 126 119 100 78 62 61 55 52 48 57 47 23 16 -14 -28 -43 -39 -34 -32 -7 31 67 68 48 89 138
42 19 21 55 83 121 138 139 123 116 118 98 72 75 94 108 103 101 91 79 74 66 53 42 55 79 141 77 94 202 250 173
57 41 53 66 90 113 135 171 160 160 146 137 118 132 172 115 136 110 118 94 79 77 79 87 99 134 152 196 208 219 254 280
35 38 53 52 66 68 103 130 143 153 152 143 143 123 149 117 126 113 139 109 84 79 89 91 116 134 169 207 149 195 254 256
25 28 55 52 67 63 82 68 102 135 134 148 144 109 109 137 154 142 127 115 114 107 114 112 118 112 138 168 198 232 197 188
30 46 50 74 92 94 89 77 78 102 109 128 103 115 117 109 112 115 111 98 77 96 137 156 150 187 181 217 232 194 143 184
17 18 33 59 80 70 71 90 91 93 91 87 95 95 89 101 105 97 83 88 106 141 146 177 187 192 175 123 138 187 261 347
22 75 67 99 115 124 114 98 62 79 93 116 121 114 122 129 142 153 180 209 227 231 226 200 201 204 186 208 302 323 389 417

GFSFLT1_con_3kmhel_096.txt.gz
Helicity
96 114 142 162 111 47 64 36 65 89 174 274 284 624 493 491 474 466 485 284 161 197 175 124 125 135 112 103 93 92 85 75
100 112 117 150 44 15 47 62 50 77 143 311 433 523 426 569 658 408 275 195 112 216 108 106 122 112 102 117 84 96 117 116
85 90 104 110 60 15 52 66 53 74 129 152 322 327 445 430 320 232 222 217 125 123 112 119 131 118 114 107 115 102 146 127
82 92 92 87 89 30 55 80 79 47 98 151 212 289 177 191 149 236 200 205 69 97 70 60 109 109 103 93 110 111 62 109
84 81 90 81 83 79 63 101 85 35 53 105 149 151 186 170 177 148 172 160 179 139 67 79 89 91 126 106 89 92 32 75
81 63 75 79 83 84 86 77 100 127 85 119 160 192 213 162 132 116 137 179 166 178 129 93 100 80 134 126 92 -4 35 76
96 67 78 77 75 80 78 97 89 130 109 69 64 119 209 159 161 124 128 218 205 205 166 140 117 167 185 70 32 -49 17 40
102 91 83 83 77 60 58 68 82 70 64 57 47 79 74 90 105 149 130 147 180 252 231 166 139 115 61 10 -45 -50 6 36
56 72 71 90 78 71 50 52 45 63 41 27 48 42 35 31 46 35 94 179 173 205 182 117 61 21 -51 -70 -38 -9 -0 6
39 63 44 81 70 74 57 54 38 42 49 19 11 3 7 16 2 9 33 69 95 119 121 71 13 -8 -44 -54 -24 -35 -5 -0
39 54 63 39 65 71 52 45 58 44 46 54 49 32 -2 -8 -13 20 22 2 -0 -4 -3 20 27 -0 -20 -36 -35 -25 -24 6
40 60 84 43 71 91 88 41 54 64 55 36 34 43 30 16 23 16 22 21 30 26 35 20 15 40 40 33 18 13 31 34
20 45 85 72 67 111 114 100 69 58 62 59 44 30 35 33 29 26 32 38 34 41 50 64 73 79 82 102 108 141 125 125
51 51 52 43 59 87 113 115 96 78 62 66 68 63 57 60 47 33 43 48 43 48 52 51 57 72 84 95 160 162 186 215
38 38 35 32 47 62 83 99 102 96 87 85 83 85 82 63 65 59 59 74 63 66 66 67 70 74 73 77 80 72 81 115
37 43 31 41 46 38 30 59 89 78 69 55 49 64 68 68 71 69 41 45 78 93 71 63 67 83 109 109 136 159 153 165
36 31 18 38 54 34 38 69 44 30 21 18 16 28 36 43 39 61 66 79 84 88 93 91 97 134 157 166 175 196 192 182
33 1 28 27 38 64 49 81 103 67 44 34 41 50 56 66 65 65 75 95 100 100 125 174 277 327 289 218 181 212 250 265
79 57 7 50 65 80 99 103 114 111 84 84 90 99 103 107 111 125 194 272 316 327 345 339 309 292 287 262 287 259 283 302

GFSFLT1_con_3kmhel_102.txt.gz
Helicity
243 223 209 297 206 250 182 105 48 86 79 62 72 88 96 219 264 274 279 270 204 259 252 147 193 172 153 192 182 121 93 54
229 239 312 293 217 172 110 89 83 73 75 62 60 97 125 209 308 270 345 234 244 295 279 259 221 231 324 206 184 143 113 61
319 319 295 268 163 107 74 83 65 62 57 77 116 134 126 166 271 316 372 329 316 299 361 311 376 419 229 200 196 124 128 89
305 292 214 257 138 99 76 108 92 71 90 53 56 91 100 131 160 338 451 411 411 423 436 526 541 431 208 140 150 110 160 161
221 257 199 221 138 99 83 112 133 77 67 65 42 68 177 292 182 295 478 420 397 440 527 497 546 336 119 134 107 110 163 173
236 300 214 165 164 115 81 136 142 106 79 84 58 245 237 265 325 493 426 389 460 437 431 380 178 118 84 145 168 117 200 126
220 274 204 152 185 125 99 129 114 113 79 106 17 56 170 205 214 349 370 491 457 446 489 189 123 107 111 130 46 83 114 165
218 313 218 173 194 162 129 83 106 118 110 116 102 61 55 106 126 152 260 276 298 254 134 111 152 76 60 41 61 95 98 172
185 209 218 171 182 139 108 83 105 112 88 106 86 84 44 80 135 133 97 98 130 99 93 110 70 17 100 43 -22 55 64 136
140 176 236 179 154 124 76 100 45 90 92 68 52 60 61 104 53 111 125 207 206 168 149 50 35 82 42 -20 41 50 124 142
134 143 224 170 144 143 67 98 75 61 67 67 65 50 32 33 69 83 84 82 71 151 168 87 53 95 92 55 30 29 43 75
153 138 218 155 156 154 117 67 102 91 73 57 78 45 29 45 40 42 56 50 36 57 98 114 73 86 85 70 84 68 32 82
122 129 206 169 176 164 131 70 98 122 114 88 57 31 50 47 35 41 26 41 53 81 85 101 128 126 96 87 96 117 120 130
53 143 217 189 168 165 135 96 94 139 132 130 96 62 45 58 40 40 55 49 58 53 84 71 61 79 101 136 147 137 133 122
35 82 156 162 150 158 148 124 109 157 150 148 137 120 82 67 65 57 63 60 50 41 41 64 72 84 90 96 106 113 110 119
13 50 71 138 167 153 123 153 130 142 154 160 142 135 92 94 104 98 89 93 80 70 66 61 70 78 134 135 131 161 260 300
47 17 68 92 144 169 131 151 164 127 137 155 141 152 135 104 104 108 124 116 104 94 118 245 351 293 280 230 280 298 342 331
116 35 32 112 139 161 131 138 183 123 92 113 108 121 117 117 115 112 118 201 343 376 368 378 383 377 383 387 423 418 421 447
50 55 134 53 129 135 145 151 172 138 76 85 109 106 94 94 208 431 462 479 476 469 492 503 530 511 465 458 441 387 390 422

GFSFLT1_con_3kmhel_105.txt.gz
Helicity
467 507 484 438 437 386 311 229 109 62 70 95 104 106 69 66 113 112 156 205 223 289 203 188 224 154 128 120 130 163 124 93
568 572 439 439 363 324 254 185 96 90 75 62 72 105 124 78 60 143 171 281 315 265 208 168 191 156 94 162 201 177 155 112
534 555 413 356 269 243 221 141 124 57 66 68 89 96 101 136 158 178 217 267 309 322 218 179 160 188 120 192 185 225 152 140
449 444 361 289 216 211 196 117 121 61 52 77 80 97 141 79 159 284 230 294 280 273 247 281 238 256 245 251 180 215 191 173
382 348 260 238 165 182 184 149 127 77 87 69 44 43 79 131 -46 234 324 352 233 287 281 385 333 231 182 237 221 161 175 192
287 243 289 243 182 191 172 147 131 125 82 44 17 64 86 79 -6 18 342 303 252 268 361 405 494 393 361 312 308 259 171 200
403 378 302 278 165 175 163 141 110 143 101 93 85 105 129 115 85 94 220 313 323 315 396 421 379 533 478 409 346 282 199 219
440 398 335 266 153 154 153 128 106 123 86 108 120 73 105 125 171 108 256 508 382 446 395 348 475 431 549 360 305 240 137 120
293 263 275 244 175 168 150 116 95 110 95 79 110 75 63 83 171 215 268 262 450 365 433 456 551 385 288 204 162 127 126 57
227 244 274 199 193 169 159 107 69 82 107 83 81 111 79 59 67 68 89 198 283 417 482 392 181 207 170 127 89 95 84 41
259 277 277 223 187 166 158 84 59 48 83 100 79 65 85 92 94 92 84 89 91 137 103 154 124 90 93 60 73 39 19 -69
275 280 298 278 190 157 142 76 65 56 24 57 94 86 79 103 78 68 90 90 90 87 130 127 61 57 29 36 26 57 68 87
267 267 316 282 203 143 143 105 75 68 41 18 54 70 92 80 72 85 102 84 71 62 80 70 49 24 18 59 96 95 74 67
51 279 314 290 237 167 134 128 92 78 79 63 64 47 64 64 60 60 75 79 82 94 100 93 77 76 68 82 110 93 97 101
124 144 321 304 272 214 166 119 112 125 110 107 84 70 65 68 53 41 42 55 62 71 77 79 74 79 88 89 87 97 98 183
32 24 99 353 283 230 178 144 162 183 140 145 106 100 94 98 95 84 60 68 68 61 97 70 77 110 141 138 159 184 241 273
69 5 -1 43 326 273 233 174 168 223 189 170 131 107 100 123 100 97 115 109 99 179 273 283 289 255 239 242 293 335 356 386
91 3 58 64 30 329 261 237 161 199 211 180 159 131 100 90 93 86 90 246 319 364 381 377 382 336 345 386 407 414 414 412
240 261 45 160 117 174 347 259 189 184 234 215 169 150 121 122 239 351 383 416 428 442 466 468 492 482 447 466 483 509 602 618

GFSFLT1_con_3kmhel_111.txt.gz
Helicity
7 12 154 376 477 462 382 251 278 251 237 163 143 108 66 78 94 193 122 206 171 187 191 185 192 170 178 157 123 192 274 205
-32 76 223 283 470 477 362 295 324 300 269 213 176 157 78 49 -10 54 115 194 231 208 200 178 172 163 140 106 155 177 299 253
21 144 294 379 434 464 342 300 345 267 255 221 178 157 81 53 -16 50 87 153 161 149 112 129 143 147 149 159 162 303 276 224
93 190 268 371 466 488 324 316 309 256 268 282 268 211 161 80 85 74 80 129 142 86 112 142 131 134 115 162 181 217 267 221
99 161 266 324 426 383 287 310 314 277 252 260 239 217 169 96 100 98 62 100 173 148 76 98 133 191 155 163 195 234 283 237
102 103 259 338 425 366 292 288 298 279 222 202 215 188 165 168 112 97 112 102 24 94 57 111 150 214 191 224 185 225 276 287
100 64 247 359 385 276 278 281 261 244 201 176 185 185 160 123 123 128 94 139 139 183 205 192 197 219 248 230 260 267 323 313
71 49 297 395 372 261 240 263 265 190 177 165 171 171 148 92 78 85 88 136 250 281 253 265 242 303 327 272 319 349 335 319
132 82 335 397 361 296 217 242 255 179 156 148 138 154 112 50 12 33 62 116 194 445 357 344 286 348 399 387 355 388 450 473
318 87 232 311 361 282 209 238 206 142 120 151 126 136 76 42 26 48 18 59 229 205 425 398 407 398 436 393 371 469 431 318
415 118 139 206 246 244 208 202 155 114 96 110 121 124 65 77 63 76 117 173 186 236 343 328 392 402 433 341 373 346 321 418
431 208 259 153 122 123 233 194 140 102 98 75 85 113 62 71 71 72 113 182 212 336 338 317 471 449 478 360 330 298 322 190
470 301 305 144 39 69 135 136 121 93 104 81 37 65 80 34 54 72 109 119 142 206 265 360 370 459 416 413 418 305 213 168
578 342 140 96 72 59 71 87 73 111 122 90 48 40 53 43 32 31 65 94 108 134 198 277 387 380 397 266 133 169 139 107
577 206 -82 110 79 72 84 54 72 82 123 79 59 41 57 52 56 38 29 54 79 82 103 145 120 177 163 151 120 137 169 164
409 227 25 109 127 129 110 101 76 85 86 77 41 50 65 71 59 51 31 28 34 50 53 44 45 49 65 91 119 164 200 213
204 76 154 200 160 143 158 111 127 98 60 44 37 74 88 93 82 67 75 56 45 63 89 90 103 93 79 97 183 231 247 271
80 186 205 318 234 176 139 165 110 137 101 79 70 78 99 108 109 104 112 154 165 177 181 182 163 122 151 267 323 317 355 375
23 27 16 90 98 127 25 139 182 120 122 125 116 106 110 123 167 222 238 244 251 246 240 237 262 264 287 379 446 437 482 517

GFSFLT1_con_3kmhel_114.txt.gz
Helicity
71 19 -61 31 154 232 300 316 372 355 303 282 261 248 164 116 129 201 206 159 184 471 316 283 304 233 294 288 227 250 198 125
113 64 -42 62 147 202 284 371 359 384 363 271 250 194 143 96 100 133 169 141 71 382 476 313 233 235 251 286 251 233 263 214
98 87 30 109 140 181 265 386 403 348 313 242 279 206 156 101 84 157 136 102 276 488 379 276 209 215 260 286 280 317 252 192
116 101 107 114 142 180 266 407 404 340 262 268 275 233 206 175 136 131 118 116 184 229 246 234 201 217 223 251 266 217 273 198
89 141 223 204 179 203 269 335 353 310 289 261 283 233 218 160 137 102 17 83 131 150 170 188 178 197 210 244 239 260 338 260
88 78 186 220 222 258 284 281 292 276 265 258 276 232 180 157 155 142 115 71 67 179 208 139 147 161 198 236 238 245 334 311
79 41 65 133 202 253 271 268 269 258 251 238 280 259 225 175 148 149 127 159 131 96 148 158 108 125 167 229 235 254 302 278
35 104 41 153 133 175 242 260 283 269 253 200 242 215 225 182 151 121 148 93 142 136 102 103 153 152 183 224 266 296 287 266
28 102 76 105 133 116 245 238 260 282 271 215 203 172 193 153 142 135 97 132 166 122 109 137 196 177 208 232 287 295 318 312
-21 -10 132 48 106 108 188 206 230 268 270 229 175 140 143 132 119 66 69 86 89 94 131 174 252 206 265 276 342 416 401 279
15 29 43 153 114 126 166 155 137 219 238 206 149 108 98 87 61 24 26 41 96 78 96 188 409 325 342 364 380 470 490 408
37 117 120 231 100 178 192 187 129 104 162 170 117 85 83 69 21 26 -18 10 76 101 161 304 344 561 400 378 375 360 435 391
5 105 218 168 175 236 192 184 141 104 124 124 88 84 89 77 43 61 40 32 114 140 151 176 237 470 419 430 401 475 355 345
169 360 325 222 228 276 203 144 115 97 129 117 88 72 84 62 38 52 55 35 73 104 173 242 192 186 332 458 399 346 293 258
-19 417 213 146 238 282 171 142 125 102 113 94 99 70 74 58 39 41 49 44 39 82 132 200 236 316 284 393 295 279 463 405
-77 235 351 281 171 189 204 131 100 117 111 78 88 75 78 79 54 37 41 49 39 41 68 76 160 251 355 342 295 323 269 319
-102 80 320 340 204 221 217 148 120 124 111 96 111 85 88 71 63 57 48 43 65 72 65 74 103 108 83 131 161 258 292 312
-39 17 275 328 211 262 288 176 130 127 106 90 104 94 91 91 91 88 82 128 136 145 153 138 116 80 106 189 241 282 297 268
-3 -59 -19 43 51 125 211 255 188 125 107 93 93 89 87 105 132 189 198 214 211 193 191 189 190 187 213 309 365 356 396 392

GFSFLT1_con_3kmhel_117.txt.gz
Helicity
71 99 114 70 68 36 62 109 159 220 287 315 296 278 284 268 228 168 125 169 205 232 319 627 435 353 312 275 220 191 144 135
90 104 105 76 44 51 69 54 138 235 312 390 335 298 254 225 207 132 132 122 172 221 331 373 361 339 315 276 274 237 194 166
101 120 103 61 77 45 34 40 128 180 299 337 320 256 244 176 175 140 115 132 172 137 296 526 343 305 285 285 254 254 217 183
116 130 113 49 68 115 25 58 105 164 248 300 281 260 220 187 186 151 118 172 128 141 190 404 391 338 242 229 252 268 275 184
99 122 75 111 49 54 39 65 105 186 234 247 222 244 220 194 224 155 150 170 199 277 283 433 337 267 283 240 250 264 284 254
43 51 66 100 27 23 64 66 115 203 244 224 189 217 177 183 196 166 141 152 195 252 251 271 304 269 241 214 210 222 242 305
32 19 52 60 -6 -45 87 92 110 160 190 197 196 204 190 217 168 179 144 142 121 161 184 222 245 229 201 206 208 247 268 238
23 34 55 73 12 -82 20 107 119 148 178 164 179 173 169 171 173 165 156 127 118 123 100 208 182 169 169 210 225 247 260 264
2 -18 23 33 11 -55 37 69 117 128 176 151 120 132 179 164 171 140 109 126 104 99 111 121 129 175 165 157 205 239 257 284
7 -21 -4 43 -7 -5 -8 72 94 143 175 159 112 120 159 166 168 133 123 93 60 124 110 90 96 176 175 113 151 213 252 304
-40 -26 10 27 12 -26 -42 30 94 164 154 131 116 105 131 137 114 90 44 38 53 113 80 137 116 68 156 151 179 204 269 321
-47 -57 7 101 123 34 -19 31 61 202 144 125 122 114 123 136 77 35 7 3 1 -4 4 92 185 234 149 223 249 249 279 364
-3 -21 -36 86 123 146 145 78 106 203 131 113 120 100 121 100 52 23 23 37 -2 -40 11 63 158 200 336 342 280 311 295 403
-36 -68 -76 22 108 184 162 179 149 168 164 106 122 78 109 58 28 28 34 48 53 18 45 40 126 203 233 341 333 374 390 385
-23 -62 -84 -32 229 150 208 203 230 170 147 87 80 80 101 48 37 25 19 32 70 63 56 45 120 224 286 260 449 486 317 301
17 -12 -105 -1 340 262 185 227 201 170 100 96 76 84 101 61 46 19 29 23 26 60 75 95 71 117 197 172 301 575 484 579
36 -30 -36 183 297 310 214 270 257 143 102 98 83 114 104 63 52 36 33 37 34 60 83 89 106 167 319 393 520 362 416 533
47 -24 2 8 176 202 202 248 375 182 107 96 98 117 110 85 71 61 55 89 89 91 100 117 135 132 173 300 500 419 386 280
-4 -28 -22 39 -10 46 184 224 300 180 118 116 124 129 112 106 111 153 160 163 152 132 149 142 167 185 271 325 319 315 393 362

GFSFLT1_con_3kmhel_120.txt.gz
Helicity
106 90 118 103 90 87 83 84 84 65 75 162 233 252 303 287 290 233 220 243 196 178 193 237 308 360 332 257 156 70 53 90
77 101 91 96 88 83 55 79 99 74 109 188 281 266 310 277 256 194 242 181 186 191 247 290 357 424 346 239 199 108 63 94
111 127 111 92 90 79 56 65 74 51 107 183 177 207 196 200 216 215 241 170 154 167 203 296 414 405 533 226 235 164 119 148
95 120 100 87 101 98 53 50 45 29 63 131 137 174 189 208 216 243 226 127 106 161 222 309 356 517 500 307 254 192 179 170
70 74 94 69 102 85 51 24 32 37 54 110 109 161 213 175 180 238 198 145 135 122 153 169 408 464 417 452 313 266 187 202
42 44 70 71 71 82 64 28 13 38 79 68 101 111 123 128 194 196 175 209 115 83 145 221 229 408 414 371 328 255 223 242
48 51 44 66 53 54 56 52 14 39 74 71 99 111 106 113 162 160 184 220 164 181 251 308 243 384 288 339 342 246 203 207
58 58 56 55 77 62 43 4 22 53 84 93 107 114 83 87 113 123 165 211 185 180 200 256 329 373 358 334 274 224 190 193
37 25 26 31 53 63 25 8 -24 31 109 112 109 105 104 92 109 111 139 182 158 157 175 222 275 306 297 313 254 221 162 184
15 2 -7 14 11 49 21 -5 21 29 76 121 121 96 73 85 119 86 138 135 122 116 146 173 162 194 238 245 291 161 177 188
14 -11 -11 0 -1 -18 62 -3 28 45 56 96 103 85 87 106 139 115 127 146 105 77 149 163 144 163 186 250 186 128 156 159
5 0 -10 -5 -19 -3 8 66 43 39 70 102 66 104 87 94 131 126 112 122 73 70 128 124 173 177 164 178 149 148 117 142
7 -10 -22 -14 -35 -21 46 55 104 69 89 104 87 112 85 87 111 128 106 91 47 30 43 65 158 197 201 195 222 232 112 111
10 2 -11 -29 -38 19 37 86 154 152 110 114 121 111 93 74 98 113 98 100 67 53 44 40 47 118 172 230 198 197 226 186
11 2 5 -12 -44 27 58 125 110 122 167 130 141 101 87 67 85 120 97 94 60 59 62 44 46 98 100 222 297 235 261 351
24 45 40 23 5 19 110 138 82 181 219 149 132 107 91 74 93 131 112 85 53 65 79 74 89 118 116 204 289 308 289 480
75 87 63 36 -3 14 108 103 153 164 146 156 108 103 86 73 106 131 108 84 66 74 84 123 148 96 198 256 403 478 555 720
101 95 59 30 1 17 91 89 162 138 194 170 111 79 87 71 107 126 125 118 108 120 131 133 172 181 382 410 380 469 619 532
90 58 34 14 11 9 22 99 204 197 225 157 116 100 100 67 104 160 204 188 157 153 159 156 181 182 331 432 514 443 482 472

GFSFLT1_con_3kmhel_123.txt.gz
Helicity
41 53 121 160 151 116 88 83 111 137 160 136 147 150 169 215 187 161 161 171 259 254 320 255 220 303 299 303 179 93 83 102
22 69 119 99 76 65 66 71 79 122 166 169 161 197 273 240 180 99 219 212 214 287 310 338 262 305 362 400 326 169 103 117
53 79 109 82 76 64 66 62 60 69 117 137 127 158 294 282 183 141 157 199 275 229 257 294 291 336 380 342 289 290 166 135
102 96 72 66 100 90 62 58 64 58 65 162 225 206 186 155 150 138 132 174 226 239 221 256 241 304 428 378 378 321 156 143
114 86 92 78 83 80 87 78 76 70 47 107 164 166 147 182 179 138 130 142 172 183 222 220 252 320 396 376 410 256 206 205
103 90 93 83 62 62 74 74 78 88 41 107 133 124 65 68 90 112 130 155 152 186 218 235 297 306 325 515 399 355 246 190
80 67 51 64 42 42 52 72 72 80 47 61 94 52 20 118 159 170 129 169 174 193 177 187 189 235 299 468 443 410 289 114
73 69 58 55 40 44 52 45 48 55 65 45 60 47 85 134 128 111 146 202 172 174 171 171 161 219 279 370 325 420 222 183
60 49 36 23 27 24 64 72 30 51 48 63 61 77 133 115 80 103 145 152 168 174 176 170 154 204 285 314 416 392 415 339
66 36 25 25 39 24 19 59 68 45 42 46 60 93 99 93 76 99 92 174 153 171 170 169 154 196 257 298 468 443 367 391
58 28 28 24 37 25 0 21 46 51 35 52 54 73 118 83 74 92 97 123 163 170 162 151 148 164 210 271 299 343 425 263
47 18 17 20 32 27 8 4 38 39 62 65 64 71 53 91 113 100 106 126 121 170 160 168 150 159 171 211 240 252 267 273
33 18 16 47 47 33 7 10 11 52 37 73 83 89 64 120 147 106 124 119 130 158 142 141 185 183 201 182 259 264 266 305
19 9 19 20 21 35 35 0 -2 37 67 61 100 102 80 96 119 108 124 127 103 100 99 110 173 214 189 222 236 261 310 271
28 32 24 26 84 36 36 22 -3 28 77 87 112 114 107 117 132 139 151 121 107 99 98 97 130 151 163 184 205 253 189 191
25 36 71 143 113 54 34 18 -14 55 68 116 115 112 100 124 138 149 143 120 109 113 117 118 115 104 122 153 174 211 228 256
41 128 124 90 81 68 46 24 23 40 48 57 116 131 100 104 132 140 116 123 140 116 132 196 149 138 103 94 166 196 319 501
120 138 96 76 67 64 55 30 30 16 85 23 133 137 81 79 140 146 140 165 186 209 189 168 162 163 271 368 493 449 627 747
175 142 103 59 62 66 33 33 26 13 113 31 122 103 81 98 144 161 231 215 210 223 201 169 162 196 293 461 474 439 509 581